Time,TemperatureF,DewpointF,PressureIn,WindDirection,WindDirectionDegrees,WindSpeedMPH,WindSpeedGustMPH,Humidity,HourlyPrecipIn,Conditions,Clouds,dailyrainin,SoftwareType,DateUTC
2013-11-04 00:01:00,41.7,35.0,30.37,West,267,0.0,0.0,77,0.00,,,0.00,Wunderground v.1.15,2013-11-04 05:01:00,
2013-11-04 00:02:00,41.7,35.0,30.37,West,267,0.0,0.0,77,0.00,,,0.00,Wunderground v.1.15,2013-11-04 05:02:00,
2013-11-04 00:03:00,41.4,34.7,30.37,N/A,-737280,0.0,-999.0,77,0.00,,,0.00,Wunderground v.1.15,2013-11-04 05:03:00,
2013-11-04 00:04:00,41.5,34.8,30.37,West,267,0.0,0.0,77,0.00,,,0.00,Wunderground v.1.15,2013-11-04 05:04:00,
2013-11-04 00:05:00,41.5,34.8,30.37,West,267,0.0,0.0,77,0.00,,,0.00,Wunderground v.1.15,2013-11-04 05:05:00,
2013-11-04 00:08:00,41.3,34.6,30.37,West,267,0.0,0.0,77,0.00,,,0.00,Wunderground v.1.15,2013-11-04 05:08:00,
2013-11-04 00:09:00,41.3,34.6,30.37,West,267,0.0,0.0,77,0.00,,,0.00,Wunderground v.1.15,2013-11-04 05:09:00,
2013-11-04 00:10:00,41.2,34.5,30.37,West,267,0.0,0.0,77,0.00,,,0.00,Wunderground v.1.15,2013-11-04 05:10:00,
2013-11-04 00:11:00,41.2,34.9,30.37,West,267,0.0,0.0,78,0.00,,,0.00,Wunderground v.1.15,2013-11-04 05:11:00,
2013-11-04 00:13:00,41.0,34.7,30.37,West,267,0.0,0.0,78,0.00,,,0.00,Wunderground v.1.15,2013-11-04 05:13:00,
2013-11-04 00:14:00,41.0,34.7,30.38,West,267,0.0,0.0,78,0.00,,,0.00,Wunderground v.1.15,2013-11-04 05:14:00,
2013-11-04 00:16:00,40.9,34.9,30.38,West,267,0.0,0.0,79,0.00,,,0.00,Wunderground v.1.15,2013-11-04 05:16:00,
2013-11-04 00:17:00,40.8,34.8,30.38,West,267,0.0,0.0,79,0.00,,,0.00,Wunderground v.1.15,2013-11-04 05:17:00,
2013-11-04 00:18:00,40.6,34.6,30.38,N/A,-737280,0.0,-999.0,79,0.00,,,0.00,Wunderground v.1.15,2013-11-04 05:18:00,
2013-11-04 00:20:00,40.7,34.7,30.38,West,267,0.0,0.0,79,0.00,,,0.00,Wunderground v.1.15,2013-11-04 05:20:00,
2013-11-04 00:21:00,40.6,34.6,30.38,West,267,0.0,0.0,79,0.00,,,0.00,Wunderground v.1.15,2013-11-04 05:21:00,
2013-11-04 00:22:00,40.5,34.5,30.38,West,267,0.0,0.0,79,0.00,,,0.00,Wunderground v.1.15,2013-11-04 05:22:00,
2013-11-04 00:23:00,40.5,34.5,30.38,West,267,0.0,0.0,79,0.00,,,0.00,Wunderground v.1.15,2013-11-04 05:23:00,
2013-11-04 00:24:00,40.5,34.5,30.38,West,267,0.0,0.0,79,0.00,,,0.00,Wunderground v.1.15,2013-11-04 05:24:00,
2013-11-04 00:27:00,40.4,35.0,30.39,West,267,0.0,0.0,81,0.00,,,0.00,Wunderground v.1.15,2013-11-04 05:27:00,
2013-11-04 00:28:00,40.2,34.8,30.39,N/A,-737280,0.0,-999.0,81,0.00,,,0.00,Wunderground v.1.15,2013-11-04 05:28:00,
2013-11-04 00:29:00,40.3,34.9,30.39,West,267,0.0,0.0,81,0.00,,,0.00,Wunderground v.1.15,2013-11-04 05:29:00,
2013-11-04 00:30:00,40.3,34.9,30.39,West,267,0.0,0.0,81,0.00,,,0.00,Wunderground v.1.15,2013-11-04 05:30:00,
2013-11-04 00:31:00,40.2,34.8,30.39,West,267,0.0,0.0,81,0.00,,,0.00,Wunderground v.1.15,2013-11-04 05:31:00,
2013-11-04 00:33:00,40.1,35.0,30.39,West,267,0.0,0.0,82,0.00,,,0.00,Wunderground v.1.15,2013-11-04 05:33:00,
2013-11-04 00:34:00,40.0,34.9,30.39,West,267,0.0,0.0,82,0.00,,,0.00,Wunderground v.1.15,2013-11-04 05:34:00,
2013-11-04 00:36:00,39.9,34.9,30.39,West,267,0.0,0.0,82,0.00,,,0.00,Wunderground v.1.15,2013-11-04 05:36:00,
2013-11-04 00:37:00,39.9,34.9,30.39,West,267,0.0,0.0,82,0.00,,,0.00,Wunderground v.1.15,2013-11-04 05:37:00,
2013-11-04 00:38:00,39.7,35.0,30.39,N/A,-737280,0.0,-999.0,83,0.00,,,0.00,Wunderground v.1.15,2013-11-04 05:38:00,
2013-11-04 00:39:00,39.8,34.8,30.39,West,267,0.0,0.0,82,0.00,,,0.00,Wunderground v.1.15,2013-11-04 05:39:00,
2013-11-04 00:40:00,39.8,34.8,30.39,West,267,0.0,0.0,82,0.00,,,0.00,Wunderground v.1.15,2013-11-04 05:40:00,
2013-11-04 00:42:00,39.7,35.0,30.39,West,267,0.0,0.0,83,0.00,,,0.00,Wunderground v.1.15,2013-11-04 05:42:00,
2013-11-04 00:43:00,39.5,34.5,30.40,N/A,-737280,0.0,-999.0,82,0.00,,,0.00,Wunderground v.1.15,2013-11-04 05:43:00,
2013-11-04 00:44:00,39.6,34.6,30.39,West,268,0.0,0.0,82,0.00,,,0.00,Wunderground v.1.15,2013-11-04 05:44:00,
2013-11-04 00:45:00,39.6,34.6,30.39,West,268,0.0,0.0,82,0.00,,,0.00,Wunderground v.1.15,2013-11-04 05:45:00,
2013-11-04 00:46:00,39.5,34.5,30.40,West,267,0.0,0.0,82,0.00,,,0.00,Wunderground v.1.15,2013-11-04 05:46:00,
2013-11-04 00:47:00,39.5,34.5,30.40,West,267,0.0,0.0,82,0.00,,,0.00,Wunderground v.1.15,2013-11-04 05:47:00,
2013-11-04 00:48:00,39.4,34.4,30.40,N/A,-737280,0.0,-999.0,82,0.00,,,0.00,Wunderground v.1.15,2013-11-04 05:48:00,
2013-11-04 00:50:00,39.5,34.5,30.40,West,267,0.0,0.0,82,0.00,,,0.00,Wunderground v.1.15,2013-11-04 05:50:00,
2013-11-04 00:51:00,39.4,34.4,30.40,West,267,0.0,0.0,82,0.00,,,0.00,Wunderground v.1.15,2013-11-04 05:51:00,
2013-11-04 00:52:00,39.4,34.4,30.40,West,267,0.0,0.0,82,0.00,,,0.00,Wunderground v.1.15,2013-11-04 05:52:00,
2013-11-04 00:53:00,39.3,34.3,30.40,N/A,-737280,0.0,-999.0,82,0.00,,,0.00,Wunderground v.1.15,2013-11-04 05:53:00,
2013-11-04 00:54:00,39.3,34.3,30.40,West,267,0.0,0.0,82,0.00,,,0.00,Wunderground v.1.15,2013-11-04 05:54:00,
2013-11-04 00:55:00,39.3,34.3,30.40,West,267,0.0,0.0,82,0.00,,,0.00,Wunderground v.1.15,2013-11-04 05:55:00,
2013-11-04 00:56:00,39.3,34.3,30.40,West,267,0.0,0.0,82,0.00,,,0.00,Wunderground v.1.15,2013-11-04 05:56:00,
2013-11-04 00:57:00,39.2,34.2,30.40,West,267,0.0,0.0,82,0.00,,,0.00,Wunderground v.1.15,2013-11-04 05:57:00,
2013-11-04 00:58:00,39.2,34.2,30.40,West,268,0.0,0.0,82,0.00,,,0.00,Wunderground v.1.15,2013-11-04 05:58:00,
2013-11-04 01:02:00,39.1,34.4,30.40,West,267,0.0,0.0,83,0.00,,,0.00,Wunderground v.1.15,2013-11-04 06:02:00,
2013-11-04 01:03:00,39.1,34.4,30.41,West,267,0.0,0.0,83,0.00,,,0.00,Wunderground v.1.15,2013-11-04 06:03:00,
2013-11-04 01:05:00,39.0,34.3,30.41,West,267,0.0,0.0,83,0.00,,,0.00,Wunderground v.1.15,2013-11-04 06:05:00,
2013-11-04 01:08:00,38.8,34.1,30.40,West,267,0.0,0.0,83,0.00,,,0.00,Wunderground v.1.15,2013-11-04 06:08:00,
2013-11-04 01:09:00,38.8,34.1,30.40,West,267,0.0,0.0,83,0.00,,,0.00,Wunderground v.1.15,2013-11-04 06:09:00,
2013-11-04 01:10:00,38.7,34.0,30.40,West,267,0.0,0.0,83,0.00,,,0.00,Wunderground v.1.15,2013-11-04 06:10:00,
2013-11-04 01:12:00,38.5,34.1,30.40,West,267,0.0,0.0,84,0.00,,,0.00,Wunderground v.1.15,2013-11-04 06:12:00,
2013-11-04 01:13:00,38.5,34.1,30.40,West,267,0.0,0.0,84,0.00,,,0.00,Wunderground v.1.15,2013-11-04 06:13:00,
2013-11-04 01:16:00,38.5,34.4,30.40,West,267,0.0,0.0,85,0.00,,,0.00,Wunderground v.1.15,2013-11-04 06:16:00,
2013-11-04 01:17:00,38.5,34.4,30.40,West,267,0.0,0.0,85,0.00,,,0.00,Wunderground v.1.15,2013-11-04 06:17:00,
2013-11-04 01:18:00,38.5,34.4,30.41,N/A,-737280,0.0,-999.0,85,0.00,,,0.00,Wunderground v.1.15,2013-11-04 06:18:00,
2013-11-04 01:19:00,38.5,34.4,30.41,West,267,0.0,0.0,85,0.00,,,0.00,Wunderground v.1.15,2013-11-04 06:19:00,
2013-11-04 01:20:00,38.5,34.4,30.41,West,267,0.0,0.0,85,0.00,,,0.00,Wunderground v.1.15,2013-11-04 06:20:00,
2013-11-04 01:21:00,38.5,34.4,30.41,West,267,0.0,0.0,85,0.00,,,0.00,Wunderground v.1.15,2013-11-04 06:21:00,
2013-11-04 01:23:00,38.5,34.4,30.41,West,267,0.0,0.0,85,0.00,,,0.00,Wunderground v.1.15,2013-11-04 06:23:00,
2013-11-04 01:26:00,38.4,34.3,30.41,West,267,0.0,0.0,85,0.00,,,0.00,Wunderground v.1.15,2013-11-04 06:26:00,
2013-11-04 01:28:00,38.5,34.7,30.41,West,267,0.0,0.0,86,0.00,,,0.00,Wunderground v.1.15,2013-11-04 06:28:00,
2013-11-04 01:29:00,38.6,34.8,30.41,West,267,0.0,0.0,86,0.00,,,0.00,Wunderground v.1.15,2013-11-04 06:29:00,
2013-11-04 01:31:00,38.6,34.8,30.40,West,268,0.0,0.0,86,0.00,,,0.00,Wunderground v.1.15,2013-11-04 06:31:00,
2013-11-04 01:32:00,38.6,34.5,30.40,West,268,0.0,0.0,85,0.00,,,0.00,Wunderground v.1.15,2013-11-04 06:32:00,
2013-11-04 01:33:00,38.7,34.9,30.40,West,267,0.0,0.0,86,0.00,,,0.00,Wunderground v.1.15,2013-11-04 06:33:00,
2013-11-04 01:35:00,38.8,35.3,30.40,West,267,0.0,0.0,87,0.00,,,0.00,Wunderground v.1.15,2013-11-04 06:35:00,
2013-11-04 01:36:00,38.8,35.3,30.39,West,267,0.0,0.0,87,0.00,,,0.00,Wunderground v.1.15,2013-11-04 06:36:00,
2013-11-04 01:38:00,38.9,35.1,30.40,West,267,0.0,0.0,86,0.00,,,0.00,Wunderground v.1.15,2013-11-04 06:38:00,
2013-11-04 01:40:00,38.8,35.0,30.40,West,268,0.0,0.0,86,0.00,,,0.00,Wunderground v.1.15,2013-11-04 06:40:00,
2013-11-04 01:41:00,38.8,34.7,30.40,ENE,62,1.0,1.0,85,0.00,,,0.00,Wunderground v.1.15,2013-11-04 06:41:00,
2013-11-04 01:42:00,38.8,34.7,30.40,ENE,63,0.0,1.0,85,0.00,,,0.00,Wunderground v.1.15,2013-11-04 06:42:00,
2013-11-04 01:43:00,39.1,34.4,30.41,ENE,68,0.0,-999.0,83,0.00,,,0.00,Wunderground v.1.15,2013-11-04 06:43:00,
2013-11-04 01:46:00,39.1,34.4,30.41,ENE,67,1.0,1.0,83,0.00,,,0.00,Wunderground v.1.15,2013-11-04 06:46:00,
2013-11-04 01:48:00,39.4,34.7,30.42,NNW,338,0.0,-999.0,83,0.00,,,0.00,Wunderground v.1.15,2013-11-04 06:48:00,
2013-11-04 01:49:00,39.3,34.6,30.42,NNW,342,0.0,1.0,83,0.00,,,0.00,Wunderground v.1.15,2013-11-04 06:49:00,
2013-11-04 01:50:00,39.4,34.7,30.42,NNW,341,0.0,0.0,83,0.00,,,0.00,Wunderground v.1.15,2013-11-04 06:50:00,
2013-11-04 01:51:00,39.4,34.7,30.42,NNW,342,0.0,0.0,83,0.00,,,0.00,Wunderground v.1.15,2013-11-04 06:51:00,
2013-11-04 01:53:00,39.4,34.7,30.42,N/A,-737280,0.0,-999.0,83,0.00,,,0.00,Wunderground v.1.15,2013-11-04 06:53:00,
2013-11-04 01:56:00,39.3,34.6,30.42,NNW,341,0.0,0.0,83,0.00,,,0.00,Wunderground v.1.15,2013-11-04 06:56:00,
2013-11-04 01:57:00,39.3,34.6,30.42,NNW,342,0.0,0.0,83,0.00,,,0.00,Wunderground v.1.15,2013-11-04 06:57:00,
2013-11-04 01:58:00,39.1,34.4,30.42,NNW,338,0.0,-999.0,83,0.00,,,0.00,Wunderground v.1.15,2013-11-04 06:58:00,
2013-11-04 01:59:00,39.2,34.8,30.42,NNW,341,0.0,0.0,84,0.00,,,0.00,Wunderground v.1.15,2013-11-04 06:59:00,
2013-11-04 02:01:00,39.1,34.4,30.42,NNW,341,0.0,0.0,83,0.00,,,0.00,Wunderground v.1.15,2013-11-04 07:01:00,
2013-11-04 02:02:00,39.0,34.6,30.42,NNW,341,0.0,0.0,84,0.00,,,0.00,Wunderground v.1.15,2013-11-04 07:02:00,
2013-11-04 02:03:00,38.8,34.4,30.42,NNW,338,0.0,-999.0,84,0.00,,,0.00,Wunderground v.1.15,2013-11-04 07:03:00,
2013-11-04 02:04:00,38.9,34.5,30.42,NNW,341,0.0,1.0,84,0.00,,,0.00,Wunderground v.1.15,2013-11-04 07:04:00,
2013-11-04 02:06:00,38.8,34.4,30.43,NNW,342,0.0,1.0,84,0.00,,,0.00,Wunderground v.1.15,2013-11-04 07:06:00,
2013-11-04 02:07:00,38.7,34.3,30.43,NNW,342,0.0,1.0,84,0.00,,,0.00,Wunderground v.1.15,2013-11-04 07:07:00,
2013-11-04 02:08:00,38.5,34.1,30.43,N/A,-737280,0.0,-999.0,84,0.00,,,0.00,Wunderground v.1.15,2013-11-04 07:08:00,
2013-11-04 02:09:00,38.7,34.3,30.43,NNW,341,0.0,1.0,84,0.00,,,0.00,Wunderground v.1.15,2013-11-04 07:09:00,
2013-11-04 02:11:00,38.5,34.1,30.43,NNW,341,0.0,0.0,84,0.00,,,0.00,Wunderground v.1.15,2013-11-04 07:11:00,
2013-11-04 02:12:00,38.5,34.1,30.43,NNW,342,0.0,0.0,84,0.00,,,0.00,Wunderground v.1.15,2013-11-04 07:12:00,
2013-11-04 02:13:00,38.4,34.3,30.43,NNW,341,0.0,0.0,85,0.00,,,0.00,Wunderground v.1.15,2013-11-04 07:13:00,
2013-11-04 02:14:00,38.4,34.3,30.43,NNW,341,0.0,0.0,85,0.00,,,0.00,Wunderground v.1.15,2013-11-04 07:14:00,
2013-11-04 02:16:00,38.3,34.2,30.43,NNW,342,1.0,1.0,85,0.00,,,0.00,Wunderground v.1.15,2013-11-04 07:16:00,
2013-11-04 02:17:00,38.2,34.1,30.43,NNW,341,0.0,1.0,85,0.00,,,0.00,Wunderground v.1.15,2013-11-04 07:17:00,
2013-11-04 02:18:00,38.2,34.1,30.43,NNW,342,0.0,1.0,85,0.00,,,0.00,Wunderground v.1.15,2013-11-04 07:18:00,
2013-11-04 02:19:00,38.2,34.1,30.43,NNW,342,0.0,1.0,85,0.00,,,0.00,Wunderground v.1.15,2013-11-04 07:19:00,
2013-11-04 02:21:00,38.3,34.2,30.43,NNW,341,0.0,0.0,85,0.00,,,0.00,Wunderground v.1.15,2013-11-04 07:21:00,
2013-11-04 02:22:00,38.3,34.2,30.43,NNW,342,0.0,0.0,85,0.00,,,0.00,Wunderground v.1.15,2013-11-04 07:22:00,
2013-11-04 02:23:00,38.3,34.5,30.43,NNW,341,0.0,0.0,86,0.00,,,0.00,Wunderground v.1.15,2013-11-04 07:23:00,
2013-11-04 02:24:00,38.3,34.2,30.42,NNW,341,0.0,0.0,85,0.00,,,0.00,Wunderground v.1.15,2013-11-04 07:24:00,
2013-11-04 02:25:00,38.3,34.5,30.42,NNW,341,0.0,0.0,86,0.00,,,0.00,Wunderground v.1.15,2013-11-04 07:25:00,
2013-11-04 02:26:00,38.4,34.6,30.42,NNW,341,0.0,0.0,86,0.00,,,0.00,Wunderground v.1.15,2013-11-04 07:26:00,
2013-11-04 02:27:00,38.4,34.6,30.42,NNW,341,0.0,0.0,86,0.00,,,0.00,Wunderground v.1.15,2013-11-04 07:27:00,
2013-11-04 02:28:00,38.4,34.6,30.43,NNW,341,0.0,0.0,86,0.00,,,0.00,Wunderground v.1.15,2013-11-04 07:28:00,
2013-11-04 02:29:00,38.4,34.6,30.43,NNW,341,0.0,0.0,86,0.00,,,0.00,Wunderground v.1.15,2013-11-04 07:29:00,
2013-11-04 02:30:00,38.4,34.6,30.43,NNW,341,0.0,0.0,86,0.00,,,0.00,Wunderground v.1.15,2013-11-04 07:30:00,
2013-11-04 02:32:00,38.4,34.3,30.43,NNW,341,0.0,0.0,85,0.00,,,0.00,Wunderground v.1.15,2013-11-04 07:32:00,
2013-11-04 02:33:00,38.3,34.2,30.43,NNW,341,0.0,0.0,85,0.00,,,0.00,Wunderground v.1.15,2013-11-04 07:33:00,
2013-11-04 02:34:00,38.3,34.5,30.43,NNW,341,0.0,0.0,86,0.00,,,0.00,Wunderground v.1.15,2013-11-04 07:34:00,
2013-11-04 02:35:00,38.2,34.1,30.43,NNW,341,0.0,0.0,85,0.00,,,0.00,Wunderground v.1.15,2013-11-04 07:35:00,
2013-11-04 02:36:00,38.2,34.1,30.43,NNW,341,0.0,0.0,85,0.00,,,0.00,Wunderground v.1.15,2013-11-04 07:36:00,
2013-11-04 02:37:00,38.1,34.0,30.43,NNW,341,0.0,0.0,85,0.00,,,0.00,Wunderground v.1.15,2013-11-04 07:37:00,
2013-11-04 02:38:00,38.1,34.3,30.43,N/A,-737280,0.0,-999.0,86,0.00,,,0.00,Wunderground v.1.15,2013-11-04 07:38:00,
2013-11-04 02:39:00,38.1,34.3,30.43,NNW,342,0.0,0.0,86,0.00,,,0.00,Wunderground v.1.15,2013-11-04 07:39:00,
2013-11-04 02:40:00,38.1,34.3,30.43,NNW,342,0.0,0.0,86,0.00,,,0.00,Wunderground v.1.15,2013-11-04 07:40:00,
2013-11-04 02:41:00,38.1,34.3,30.43,NNW,342,0.0,0.0,86,0.00,,,0.00,Wunderground v.1.15,2013-11-04 07:41:00,
2013-11-04 02:42:00,38.1,34.3,30.43,NNW,341,0.0,0.0,86,0.00,,,0.00,Wunderground v.1.15,2013-11-04 07:42:00,
2013-11-04 02:43:00,38.1,34.3,30.43,NNW,341,0.0,0.0,86,0.00,,,0.00,Wunderground v.1.15,2013-11-04 07:43:00,
2013-11-04 02:44:00,38.1,34.3,30.43,NNW,341,0.0,0.0,86,0.00,,,0.00,Wunderground v.1.15,2013-11-04 07:44:00,
2013-11-04 02:45:00,38.0,34.2,30.43,NNW,341,0.0,0.0,86,0.00,,,0.00,Wunderground v.1.15,2013-11-04 07:45:00,
2013-11-04 02:46:00,37.9,34.1,30.43,NNW,341,0.0,0.0,86,0.00,,,0.00,Wunderground v.1.15,2013-11-04 07:46:00,
2013-11-04 02:48:00,37.9,34.1,30.43,NNW,341,0.0,0.0,86,0.00,,,0.00,Wunderground v.1.15,2013-11-04 07:48:00,
2013-11-04 02:50:00,37.8,34.0,30.43,NNW,342,0.0,0.0,86,0.00,,,0.00,Wunderground v.1.15,2013-11-04 07:50:00,
2013-11-04 02:52:00,37.7,33.9,30.43,NNW,342,0.0,0.0,86,0.00,,,0.00,Wunderground v.1.15,2013-11-04 07:52:00,
2013-11-04 02:53:00,37.5,34.0,30.44,N/A,-737280,0.0,-999.0,87,0.00,,,0.00,Wunderground v.1.15,2013-11-04 07:53:00,
2013-11-04 02:54:00,37.6,33.8,30.44,NNW,342,0.0,0.0,86,0.00,,,0.00,Wunderground v.1.15,2013-11-04 07:54:00,
2013-11-04 02:55:00,37.6,33.8,30.44,NNW,342,0.0,0.0,86,0.00,,,0.00,Wunderground v.1.15,2013-11-04 07:55:00,
2013-11-04 02:56:00,37.5,34.0,30.44,NNW,341,0.0,0.0,87,0.00,,,0.00,Wunderground v.1.15,2013-11-04 07:56:00,
2013-11-04 02:57:00,37.5,34.0,30.44,NNW,341,0.0,0.0,87,0.00,,,0.00,Wunderground v.1.15,2013-11-04 07:57:00,
2013-11-04 02:58:00,37.5,34.0,30.44,N/A,-737280,0.0,-999.0,87,0.00,,,0.00,Wunderground v.1.15,2013-11-04 07:58:00,
2013-11-04 02:59:00,37.5,34.0,30.44,NNW,341,0.0,0.0,87,0.00,,,0.00,Wunderground v.1.15,2013-11-04 07:59:00,
2013-11-04 03:00:00,37.5,34.0,30.44,NNW,341,0.0,0.0,87,0.00,,,0.00,Wunderground v.1.15,2013-11-04 08:00:00,
2013-11-04 03:01:00,37.5,34.0,30.43,NNW,341,0.0,0.0,87,0.00,,,0.00,Wunderground v.1.15,2013-11-04 08:01:00,
2013-11-04 03:02:00,37.5,34.0,30.43,NNW,341,0.0,0.0,87,0.00,,,0.00,Wunderground v.1.15,2013-11-04 08:02:00,
2013-11-04 03:03:00,37.4,33.6,30.43,N/A,-737280,0.0,-999.0,86,0.00,,,0.00,Wunderground v.1.15,2013-11-04 08:03:00,
2013-11-04 03:04:00,37.4,33.9,30.43,NNW,341,0.0,0.0,87,0.00,,,0.00,Wunderground v.1.15,2013-11-04 08:04:00,
2013-11-04 03:05:00,37.4,33.9,30.43,NNW,342,0.0,0.0,87,0.00,,,0.00,Wunderground v.1.15,2013-11-04 08:05:00,
2013-11-04 03:06:00,37.4,33.9,30.43,NNW,341,0.0,0.0,87,0.00,,,0.00,Wunderground v.1.15,2013-11-04 08:06:00,
2013-11-04 03:07:00,37.3,33.8,30.43,NNW,342,0.0,0.0,87,0.00,,,0.00,Wunderground v.1.15,2013-11-04 08:07:00,
2013-11-04 03:08:00,37.3,33.8,30.43,N/A,-737280,0.0,-999.0,87,0.00,,,0.00,Wunderground v.1.15,2013-11-04 08:08:00,
2013-11-04 03:09:00,37.3,33.8,30.43,NNW,342,0.0,0.0,87,0.00,,,0.00,Wunderground v.1.15,2013-11-04 08:09:00,
2013-11-04 03:10:00,37.3,33.8,30.43,NNW,342,0.0,0.0,87,0.00,,,0.00,Wunderground v.1.15,2013-11-04 08:10:00,
2013-11-04 03:11:00,37.2,33.7,30.43,NNW,342,0.0,0.0,87,0.00,,,0.00,Wunderground v.1.15,2013-11-04 08:11:00,
2013-11-04 03:13:00,37.2,33.7,30.43,NNW,341,0.0,0.0,87,0.00,,,0.00,Wunderground v.1.15,2013-11-04 08:13:00,
2013-11-04 03:14:00,37.1,33.6,30.43,NNW,341,0.0,0.0,87,0.00,,,0.00,Wunderground v.1.15,2013-11-04 08:14:00,
2013-11-04 03:15:00,37.1,33.6,30.43,NNW,341,0.0,0.0,87,0.00,,,0.00,Wunderground v.1.15,2013-11-04 08:15:00,
2013-11-04 03:16:00,37.0,33.5,30.43,NNW,341,0.0,0.0,87,0.00,,,0.00,Wunderground v.1.15,2013-11-04 08:16:00,
2013-11-04 03:17:00,37.0,33.5,30.43,NNW,341,0.0,0.0,87,0.00,,,0.00,Wunderground v.1.15,2013-11-04 08:17:00,
2013-11-04 03:18:00,36.9,33.4,30.43,NNW,342,0.0,0.0,87,0.00,,,0.00,Wunderground v.1.15,2013-11-04 08:18:00,
2013-11-04 03:20:00,36.9,33.4,30.43,NNW,341,0.0,0.0,87,0.00,,,0.00,Wunderground v.1.15,2013-11-04 08:20:00,
2013-11-04 03:21:00,36.9,33.4,30.43,NNW,341,0.0,0.0,87,0.00,,,0.00,Wunderground v.1.15,2013-11-04 08:21:00,
2013-11-04 03:22:00,36.9,33.7,30.43,NNW,341,0.0,0.0,88,0.00,,,0.00,Wunderground v.1.15,2013-11-04 08:22:00,
2013-11-04 03:23:00,36.8,33.6,30.43,N/A,-737280,0.0,-999.0,88,0.00,,,0.00,Wunderground v.1.15,2013-11-04 08:23:00,
2013-11-04 03:24:00,36.8,33.6,30.43,NNW,341,0.0,0.0,88,0.00,,,0.00,Wunderground v.1.15,2013-11-04 08:24:00,
2013-11-04 03:25:00,36.8,33.6,30.43,NNW,341,0.0,0.0,88,0.00,,,0.00,Wunderground v.1.15,2013-11-04 08:25:00,
2013-11-04 03:26:00,36.8,33.6,30.43,NNW,341,0.0,0.0,88,0.00,,,0.00,Wunderground v.1.15,2013-11-04 08:26:00,
2013-11-04 03:27:00,36.8,33.6,30.43,NNW,342,0.0,0.0,88,0.00,,,0.00,Wunderground v.1.15,2013-11-04 08:27:00,
2013-11-04 03:28:00,36.7,33.5,30.43,N/A,-737280,0.0,-999.0,88,0.00,,,0.00,Wunderground v.1.15,2013-11-04 08:28:00,
2013-11-04 03:30:00,36.7,33.5,30.43,NNW,341,0.0,0.0,88,0.00,,,0.00,Wunderground v.1.15,2013-11-04 08:30:00,
2013-11-04 03:31:00,36.7,33.5,30.43,NNW,341,0.0,0.0,88,0.00,,,0.00,Wunderground v.1.15,2013-11-04 08:31:00,
2013-11-04 03:32:00,36.7,33.5,30.43,NNW,342,0.0,0.0,88,0.00,,,0.00,Wunderground v.1.15,2013-11-04 08:32:00,
2013-11-04 03:33:00,36.5,33.3,30.43,N/A,-737280,0.0,-999.0,88,0.00,,,0.00,Wunderground v.1.15,2013-11-04 08:33:00,
2013-11-04 03:36:00,36.6,33.4,30.43,NNW,341,0.0,0.0,88,0.00,,,0.00,Wunderground v.1.15,2013-11-04 08:36:00,
2013-11-04 03:37:00,36.5,33.3,30.43,NNW,341,0.0,0.0,88,0.00,,,0.00,Wunderground v.1.15,2013-11-04 08:37:00,
2013-11-04 03:38:00,36.5,33.3,30.43,NNW,341,0.0,0.0,88,0.00,,,0.00,Wunderground v.1.15,2013-11-04 08:38:00,
2013-11-04 03:41:00,36.3,33.1,30.44,NNW,342,0.0,0.0,88,0.00,,,0.00,Wunderground v.1.15,2013-11-04 08:41:00,
2013-11-04 03:42:00,36.3,33.1,30.44,NNW,342,0.0,0.0,88,0.00,,,0.00,Wunderground v.1.15,2013-11-04 08:42:00,
2013-11-04 03:43:00,36.2,33.3,30.44,N/A,-737280,0.0,-999.0,89,0.00,,,0.00,Wunderground v.1.15,2013-11-04 08:43:00,
2013-11-04 03:44:00,36.2,33.3,30.44,NNW,342,0.0,0.0,89,0.00,,,0.00,Wunderground v.1.15,2013-11-04 08:44:00,
2013-11-04 03:46:00,36.2,33.3,30.44,NNW,342,0.0,0.0,89,0.00,,,0.00,Wunderground v.1.15,2013-11-04 08:46:00,
2013-11-04 03:47:00,36.2,33.3,30.44,NNW,341,0.0,0.0,89,0.00,,,0.00,Wunderground v.1.15,2013-11-04 08:47:00,
2013-11-04 03:48:00,35.9,33.0,30.43,N/A,-737280,0.0,-999.0,89,0.00,,,0.00,Wunderground v.1.15,2013-11-04 08:48:00,
2013-11-04 03:49:00,36.1,33.2,30.44,NNW,341,0.0,0.0,89,0.00,,,0.00,Wunderground v.1.15,2013-11-04 08:49:00,
2013-11-04 03:51:00,35.9,33.0,30.44,NNW,341,0.0,0.0,89,0.00,,,0.00,Wunderground v.1.15,2013-11-04 08:51:00,
2013-11-04 03:52:00,35.9,33.0,30.44,NNW,341,0.0,0.0,89,0.00,,,0.00,Wunderground v.1.15,2013-11-04 08:52:00,
2013-11-04 03:53:00,35.9,33.0,30.44,NNW,342,0.0,0.0,89,0.00,,,0.00,Wunderground v.1.15,2013-11-04 08:53:00,
2013-11-04 03:54:00,35.9,33.0,30.44,NNW,341,0.0,0.0,89,0.00,,,0.00,Wunderground v.1.15,2013-11-04 08:54:00,
2013-11-04 03:57:00,35.8,32.9,30.44,NNW,341,0.0,0.0,89,0.00,,,0.00,Wunderground v.1.15,2013-11-04 08:57:00,
2013-11-04 03:58:00,35.8,33.2,30.44,NNW,341,0.0,0.0,90,0.00,,,0.00,Wunderground v.1.15,2013-11-04 08:58:00,
2013-11-04 03:59:00,35.7,32.8,30.43,NNW,341,0.0,0.0,89,0.00,,,0.00,Wunderground v.1.15,2013-11-04 08:59:00,
2013-11-04 04:02:00,35.7,33.1,30.43,NNW,341,0.0,0.0,90,0.00,,,0.00,Wunderground v.1.15,2013-11-04 09:02:00,
2013-11-04 04:03:00,35.7,33.1,30.43,NNW,341,0.0,0.0,90,0.00,,,0.00,Wunderground v.1.15,2013-11-04 09:03:00,
2013-11-04 04:05:00,35.7,33.1,30.43,NNW,341,0.0,0.0,90,0.00,,,0.00,Wunderground v.1.15,2013-11-04 09:05:00,
2013-11-04 04:07:00,35.8,33.2,30.43,NNW,341,0.0,0.0,90,0.00,,,0.00,Wunderground v.1.15,2013-11-04 09:07:00,
2013-11-04 04:08:00,35.8,33.2,30.43,NNW,341,0.0,0.0,90,0.00,,,0.00,Wunderground v.1.15,2013-11-04 09:08:00,
2013-11-04 04:09:00,35.8,33.2,30.43,NNW,342,0.0,0.0,90,0.00,,,0.00,Wunderground v.1.15,2013-11-04 09:09:00,
2013-11-04 04:10:00,35.7,33.1,30.43,NNW,341,0.0,0.0,90,0.00,,,0.00,Wunderground v.1.15,2013-11-04 09:10:00,
2013-11-04 04:12:00,35.7,33.1,30.43,NNW,341,0.0,0.0,90,0.00,,,0.00,Wunderground v.1.15,2013-11-04 09:12:00,
2013-11-04 04:13:00,35.7,33.1,30.43,NNW,341,0.0,0.0,90,0.00,,,0.00,Wunderground v.1.15,2013-11-04 09:13:00,
2013-11-04 04:14:00,35.6,33.0,30.43,NNW,342,0.0,0.0,90,0.00,,,0.00,Wunderground v.1.15,2013-11-04 09:14:00,
2013-11-04 04:15:00,35.5,32.9,30.43,NNW,341,0.0,0.0,90,0.00,,,0.00,Wunderground v.1.15,2013-11-04 09:15:00,
2013-11-04 04:18:00,35.6,33.0,30.44,NNW,342,0.0,0.0,90,0.00,,,0.00,Wunderground v.1.15,2013-11-04 09:18:00,
2013-11-04 04:19:00,35.6,33.2,30.44,NNW,342,0.0,0.0,91,0.00,,,0.00,Wunderground v.1.15,2013-11-04 09:19:00,
2013-11-04 04:20:00,35.6,33.2,30.44,NNW,341,0.0,0.0,91,0.00,,,0.00,Wunderground v.1.15,2013-11-04 09:20:00,
2013-11-04 04:23:00,35.7,33.3,30.44,NNW,341,0.0,0.0,91,0.00,,,0.00,Wunderground v.1.15,2013-11-04 09:23:00,
2013-11-04 04:24:00,35.6,33.0,30.44,NNW,341,0.0,0.0,90,0.00,,,0.00,Wunderground v.1.15,2013-11-04 09:24:00,
2013-11-04 04:25:00,35.6,33.0,30.44,NNW,341,0.0,0.0,90,0.00,,,0.00,Wunderground v.1.15,2013-11-04 09:25:00,
2013-11-04 04:28:00,35.6,33.0,30.44,NNW,341,0.0,0.0,90,0.00,,,0.00,Wunderground v.1.15,2013-11-04 09:28:00,
2013-11-04 04:30:00,35.6,33.0,30.44,NNW,341,0.0,0.0,90,0.00,,,0.00,Wunderground v.1.15,2013-11-04 09:30:00,
2013-11-04 04:31:00,35.6,33.0,30.44,NNW,342,0.0,0.0,90,0.00,,,0.00,Wunderground v.1.15,2013-11-04 09:31:00,
2013-11-04 04:33:00,35.5,32.9,30.44,NNW,341,0.0,0.0,90,0.00,,,0.00,Wunderground v.1.15,2013-11-04 09:33:00,
2013-11-04 04:35:00,35.5,33.1,30.44,NNW,341,0.0,0.0,91,0.00,,,0.00,Wunderground v.1.15,2013-11-04 09:35:00,
2013-11-04 04:36:00,35.4,33.0,30.44,NNW,341,0.0,0.0,91,0.00,,,0.00,Wunderground v.1.15,2013-11-04 09:36:00,
2013-11-04 04:38:00,35.3,32.7,30.44,NNW,342,0.0,0.0,90,0.00,,,0.00,Wunderground v.1.15,2013-11-04 09:38:00,
2013-11-04 04:40:00,35.2,32.6,30.44,NNW,341,0.0,0.0,90,0.00,,,0.00,Wunderground v.1.15,2013-11-04 09:40:00,
2013-11-04 04:41:00,35.2,32.8,30.44,NNW,342,0.0,0.0,91,0.00,,,0.00,Wunderground v.1.15,2013-11-04 09:41:00,
2013-11-04 04:43:00,35.0,32.6,30.44,NNW,341,0.0,0.0,91,0.00,,,0.00,Wunderground v.1.15,2013-11-04 09:43:00,
2013-11-04 04:45:00,35.0,32.6,30.44,NNW,341,0.0,0.0,91,0.00,,,0.00,Wunderground v.1.15,2013-11-04 09:45:00,
2013-11-04 04:46:00,35.0,32.6,30.44,NNW,341,0.0,0.0,91,0.00,,,0.00,Wunderground v.1.15,2013-11-04 09:46:00,
2013-11-04 04:48:00,34.9,32.5,30.44,NNW,342,0.0,0.0,91,0.00,,,0.00,Wunderground v.1.15,2013-11-04 09:48:00,
2013-11-04 04:50:00,34.9,32.5,30.44,NNW,341,0.0,0.0,91,0.00,,,0.00,Wunderground v.1.15,2013-11-04 09:50:00,
2013-11-04 04:51:00,35.0,32.9,30.45,NNW,341,0.0,0.0,92,0.00,,,0.00,Wunderground v.1.15,2013-11-04 09:51:00,
2013-11-04 04:53:00,35.0,32.9,30.44,N/A,-737280,0.0,-999.0,92,0.00,,,0.00,Wunderground v.1.15,2013-11-04 09:53:00,
2013-11-04 04:54:00,34.9,32.8,30.44,NNW,342,0.0,0.0,92,0.00,,,0.00,Wunderground v.1.15,2013-11-04 09:54:00,
2013-11-04 04:55:00,34.9,32.8,30.44,NNW,342,0.0,0.0,92,0.00,,,0.00,Wunderground v.1.15,2013-11-04 09:55:00,
2013-11-04 04:56:00,35.0,32.9,30.45,NNW,341,0.0,0.0,92,0.00,,,0.00,Wunderground v.1.15,2013-11-04 09:56:00,
2013-11-04 04:57:00,35.0,32.9,30.45,NNW,341,0.0,0.0,92,0.00,,,0.00,Wunderground v.1.15,2013-11-04 09:57:00,
2013-11-04 04:58:00,34.9,32.8,30.45,N/A,-737280,0.0,-999.0,92,0.00,,,0.00,Wunderground v.1.15,2013-11-04 09:58:00,
2013-11-04 04:59:00,35.0,32.9,30.45,NNW,341,0.0,0.0,92,0.00,,,0.00,Wunderground v.1.15,2013-11-04 09:59:00,
2013-11-04 05:00:00,34.9,32.8,30.45,NNW,342,0.0,0.0,92,0.00,,,0.00,Wunderground v.1.15,2013-11-04 10:00:00,
2013-11-04 05:01:00,34.9,32.8,30.45,NNW,342,0.0,0.0,92,0.00,,,0.00,Wunderground v.1.15,2013-11-04 10:01:00,
2013-11-04 05:02:00,34.9,32.8,30.45,NNW,341,0.0,0.0,92,0.00,,,0.00,Wunderground v.1.15,2013-11-04 10:02:00,
2013-11-04 05:03:00,34.8,32.7,30.45,N/A,-737280,0.0,-999.0,92,0.00,,,0.00,Wunderground v.1.15,2013-11-04 10:03:00,
2013-11-04 05:04:00,34.9,32.8,30.45,NNW,342,0.0,0.0,92,0.00,,,0.00,Wunderground v.1.15,2013-11-04 10:04:00,
2013-11-04 05:05:00,34.8,32.7,30.45,NNW,341,0.0,0.0,92,0.00,,,0.00,Wunderground v.1.15,2013-11-04 10:05:00,
2013-11-04 05:06:00,34.8,32.7,30.45,NNW,342,0.0,0.0,92,0.00,,,0.00,Wunderground v.1.15,2013-11-04 10:06:00,
2013-11-04 05:07:00,34.8,32.7,30.45,NNW,341,0.0,0.0,92,0.00,,,0.00,Wunderground v.1.15,2013-11-04 10:07:00,
2013-11-04 05:08:00,34.8,33.0,30.45,N/A,-737280,0.0,-999.0,93,0.00,,,0.00,Wunderground v.1.15,2013-11-04 10:08:00,
2013-11-04 05:09:00,34.7,32.6,30.45,NNW,342,0.0,0.0,92,0.00,,,0.00,Wunderground v.1.15,2013-11-04 10:09:00,
2013-11-04 05:10:00,34.8,32.7,30.45,NNW,341,0.0,0.0,92,0.00,,,0.00,Wunderground v.1.15,2013-11-04 10:10:00,
2013-11-04 05:12:00,34.8,33.0,30.45,NNW,341,0.0,0.0,93,0.00,,,0.00,Wunderground v.1.15,2013-11-04 10:12:00,
2013-11-04 05:13:00,34.9,33.1,30.45,NNW,342,0.0,0.0,93,0.00,,,0.00,Wunderground v.1.15,2013-11-04 10:13:00,
2013-11-04 05:15:00,34.9,33.1,30.45,NNW,341,0.0,0.0,93,0.00,,,0.00,Wunderground v.1.15,2013-11-04 10:15:00,
2013-11-04 05:16:00,34.9,33.1,30.45,NNW,341,0.0,0.0,93,0.00,,,0.00,Wunderground v.1.15,2013-11-04 10:16:00,
2013-11-04 05:17:00,34.9,33.1,30.46,NNW,341,0.0,0.0,93,0.00,,,0.00,Wunderground v.1.15,2013-11-04 10:17:00,
2013-11-04 05:18:00,34.8,32.7,30.46,NNW,341,0.0,0.0,92,0.00,,,0.00,Wunderground v.1.15,2013-11-04 10:18:00,
2013-11-04 05:19:00,34.8,32.7,30.46,NNW,342,0.0,0.0,92,0.00,,,0.00,Wunderground v.1.15,2013-11-04 10:19:00,
2013-11-04 05:20:00,34.7,32.6,30.46,NNW,341,0.0,0.0,92,0.00,,,0.00,Wunderground v.1.15,2013-11-04 10:20:00,
2013-11-04 05:21:00,34.7,32.6,30.46,NNW,341,0.0,0.0,92,0.00,,,0.00,Wunderground v.1.15,2013-11-04 10:21:00,
2013-11-04 05:22:00,34.7,32.6,30.46,NNW,341,0.0,0.0,92,0.00,,,0.00,Wunderground v.1.15,2013-11-04 10:22:00,
2013-11-04 05:23:00,34.6,32.5,30.46,NNW,341,0.0,0.0,92,0.00,,,0.00,Wunderground v.1.15,2013-11-04 10:23:00,
2013-11-04 05:24:00,34.6,32.8,30.46,NNW,341,0.0,0.0,93,0.00,,,0.00,Wunderground v.1.15,2013-11-04 10:24:00,
2013-11-04 05:25:00,34.6,32.8,30.46,NNW,341,0.0,0.0,93,0.00,,,0.00,Wunderground v.1.15,2013-11-04 10:25:00,
2013-11-04 05:26:00,34.6,32.8,30.46,NNW,342,0.0,0.0,93,0.00,,,0.00,Wunderground v.1.15,2013-11-04 10:26:00,
2013-11-04 05:27:00,34.6,32.8,30.46,NNW,342,0.0,0.0,93,0.00,,,0.00,Wunderground v.1.15,2013-11-04 10:27:00,
2013-11-04 05:28:00,34.5,32.7,30.46,NNW,341,0.0,0.0,93,0.00,,,0.00,Wunderground v.1.15,2013-11-04 10:28:00,
2013-11-04 05:29:00,34.5,32.7,30.46,NNW,341,0.0,0.0,93,0.00,,,0.00,Wunderground v.1.15,2013-11-04 10:29:00,
2013-11-04 05:30:00,34.5,32.4,30.46,NNW,341,0.0,0.0,92,0.00,,,0.00,Wunderground v.1.15,2013-11-04 10:30:00,
2013-11-04 05:31:00,34.4,32.3,30.46,NNW,341,0.0,0.0,92,0.00,,,0.00,Wunderground v.1.15,2013-11-04 10:31:00,
2013-11-04 05:32:00,34.4,32.3,30.46,NNW,342,0.0,0.0,92,0.00,,,0.00,Wunderground v.1.15,2013-11-04 10:32:00,
2013-11-04 05:33:00,34.2,32.1,30.47,N/A,-737280,0.0,-999.0,92,0.00,,,0.00,Wunderground v.1.15,2013-11-04 10:33:00,
2013-11-04 05:34:00,34.3,32.2,30.46,NNW,341,0.0,0.0,92,0.00,,,0.00,Wunderground v.1.15,2013-11-04 10:34:00,
2013-11-04 05:35:00,34.2,32.1,30.47,NNW,342,0.0,0.0,92,0.00,,,0.00,Wunderground v.1.15,2013-11-04 10:35:00,
2013-11-04 05:36:00,34.2,32.1,30.47,NNW,341,0.0,0.0,92,0.00,,,0.00,Wunderground v.1.15,2013-11-04 10:36:00,
2013-11-04 05:38:00,34.0,32.2,30.46,N/A,-737280,0.0,-999.0,93,0.00,,,0.00,Wunderground v.1.15,2013-11-04 10:38:00,
2013-11-04 05:39:00,34.1,32.0,30.46,NNW,341,0.0,0.0,92,0.00,,,0.00,Wunderground v.1.15,2013-11-04 10:39:00,
2013-11-04 05:40:00,34.1,32.3,30.46,NNW,341,0.0,0.0,93,0.00,,,0.00,Wunderground v.1.15,2013-11-04 10:40:00,
2013-11-04 05:41:00,34.0,32.2,30.46,NNW,342,0.0,0.0,93,0.00,,,0.00,Wunderground v.1.15,2013-11-04 10:41:00,
2013-11-04 05:43:00,33.9,32.1,30.47,N/A,-737280,0.0,-999.0,93,0.00,,,0.00,Wunderground v.1.15,2013-11-04 10:43:00,
2013-11-04 05:44:00,34.0,32.2,30.47,NNW,341,0.0,0.0,93,0.00,,,0.00,Wunderground v.1.15,2013-11-04 10:44:00,
2013-11-04 05:45:00,33.9,32.1,30.47,NNW,341,0.0,0.0,93,0.00,,,0.00,Wunderground v.1.15,2013-11-04 10:45:00,
2013-11-04 05:46:00,33.9,32.1,30.47,NNW,341,0.0,0.0,93,0.00,,,0.00,Wunderground v.1.15,2013-11-04 10:46:00,
2013-11-04 05:48:00,33.9,32.1,30.47,N/A,-737280,0.0,-999.0,93,0.00,,,0.00,Wunderground v.1.15,2013-11-04 10:48:00,
2013-11-04 05:49:00,33.9,32.1,30.47,NNW,341,0.0,0.0,93,0.00,,,0.00,Wunderground v.1.15,2013-11-04 10:49:00,
2013-11-04 05:50:00,33.9,32.1,30.47,NNW,341,0.0,0.0,93,0.00,,,0.00,Wunderground v.1.15,2013-11-04 10:50:00,
2013-11-04 05:51:00,33.9,32.1,30.47,NNW,341,0.0,0.0,93,0.00,,,0.00,Wunderground v.1.15,2013-11-04 10:51:00,
2013-11-04 05:53:00,33.9,32.4,30.48,N/A,-737280,0.0,-999.0,94,0.00,,,0.00,Wunderground v.1.15,2013-11-04 10:53:00,
2013-11-04 05:54:00,34.0,32.5,30.48,NNW,341,0.0,0.0,94,0.00,,,0.00,Wunderground v.1.15,2013-11-04 10:54:00,
2013-11-04 05:55:00,34.0,32.5,30.48,NNW,341,0.0,0.0,94,0.00,,,0.00,Wunderground v.1.15,2013-11-04 10:55:00,
2013-11-04 05:56:00,34.0,32.5,30.48,NNW,341,0.0,0.0,94,0.00,,,0.00,Wunderground v.1.15,2013-11-04 10:56:00,
2013-11-04 05:58:00,33.9,32.1,30.48,N/A,-737280,0.0,-999.0,93,0.00,,,0.00,Wunderground v.1.15,2013-11-04 10:58:00,
2013-11-04 05:59:00,33.9,32.1,30.48,NNW,341,0.0,0.0,93,0.00,,,0.00,Wunderground v.1.15,2013-11-04 10:59:00,
2013-11-04 06:00:00,33.9,32.1,30.48,NNW,341,0.0,0.0,93,0.00,,,0.00,Wunderground v.1.15,2013-11-04 11:00:00,
2013-11-04 06:01:00,33.9,32.1,30.48,NNW,341,0.0,0.0,93,0.00,,,0.00,Wunderground v.1.15,2013-11-04 11:01:00,
2013-11-04 06:02:00,33.9,32.1,30.48,NNW,341,0.0,0.0,93,0.00,,,0.00,Wunderground v.1.15,2013-11-04 11:02:00,
2013-11-04 06:03:00,33.9,32.1,30.48,N/A,-737280,0.0,-999.0,93,0.00,,,0.00,Wunderground v.1.15,2013-11-04 11:03:00,
2013-11-04 06:04:00,33.8,32.0,30.48,NNW,342,0.0,0.0,93,0.00,,,0.00,Wunderground v.1.15,2013-11-04 11:04:00,
2013-11-04 06:05:00,33.9,32.1,30.48,NNW,341,0.0,0.0,93,0.00,,,0.00,Wunderground v.1.15,2013-11-04 11:05:00,
2013-11-04 06:06:00,33.8,32.0,30.49,NNW,341,0.0,0.0,93,0.00,,,0.00,Wunderground v.1.15,2013-11-04 11:06:00,
2013-11-04 06:07:00,33.8,32.0,30.49,NNW,341,0.0,0.0,93,0.00,,,0.00,Wunderground v.1.15,2013-11-04 11:07:00,
2013-11-04 06:08:00,34.0,32.5,30.49,N/A,-737280,0.0,-999.0,94,0.00,,,0.00,Wunderground v.1.15,2013-11-04 11:08:00,
2013-11-04 06:10:00,33.9,32.4,30.49,NNW,341,0.0,0.0,94,0.00,,,0.00,Wunderground v.1.15,2013-11-04 11:10:00,
2013-11-04 06:11:00,34.0,32.5,30.49,NNW,341,0.0,0.0,94,0.00,,,0.00,Wunderground v.1.15,2013-11-04 11:11:00,
2013-11-04 06:12:00,34.0,32.2,30.49,NNW,341,0.0,0.0,93,0.00,,,0.00,Wunderground v.1.15,2013-11-04 11:12:00,
2013-11-04 06:13:00,33.9,32.1,30.49,N/A,-737280,0.0,-999.0,93,0.00,,,0.00,Wunderground v.1.15,2013-11-04 11:13:00,
2013-11-04 06:14:00,34.0,32.2,30.49,NNW,342,0.0,0.0,93,0.00,,,0.00,Wunderground v.1.15,2013-11-04 11:14:00,
2013-11-04 06:15:00,33.9,32.1,30.49,NNW,341,0.0,0.0,93,0.00,,,0.00,Wunderground v.1.15,2013-11-04 11:15:00,
2013-11-04 06:16:00,33.9,32.1,30.49,NNW,342,0.0,0.0,93,0.00,,,0.00,Wunderground v.1.15,2013-11-04 11:16:00,
2013-11-04 06:17:00,33.9,32.1,30.49,NNW,342,0.0,0.0,93,0.00,,,0.00,Wunderground v.1.15,2013-11-04 11:17:00,
2013-11-04 06:18:00,33.8,32.0,30.49,N/A,-737280,0.0,-999.0,93,0.00,,,0.00,Wunderground v.1.15,2013-11-04 11:18:00,
2013-11-04 06:20:00,33.8,32.0,30.49,NNW,341,0.0,0.0,93,0.00,,,0.00,Wunderground v.1.15,2013-11-04 11:20:00,
2013-11-04 06:21:00,33.8,32.0,30.49,NNW,341,0.0,0.0,93,0.00,,,0.00,Wunderground v.1.15,2013-11-04 11:21:00,
2013-11-04 06:22:00,33.8,32.0,30.49,NNW,341,0.0,0.0,93,0.00,,,0.00,Wunderground v.1.15,2013-11-04 11:22:00,
2013-11-04 06:23:00,33.8,32.0,30.49,NNW,341,0.0,0.0,93,0.00,,,0.00,Wunderground v.1.15,2013-11-04 11:23:00,
2013-11-04 06:25:00,33.9,32.1,30.49,NNW,341,0.0,0.0,93,0.00,,,0.00,Wunderground v.1.15,2013-11-04 11:25:00,
2013-11-04 06:26:00,33.9,32.1,30.49,NNW,341,0.0,0.0,93,0.00,,,0.00,Wunderground v.1.15,2013-11-04 11:26:00,
2013-11-04 06:27:00,33.9,32.1,30.49,NNW,342,0.0,0.0,93,0.00,,,0.00,Wunderground v.1.15,2013-11-04 11:27:00,
2013-11-04 06:28:00,33.9,32.1,30.49,NNW,341,0.0,0.0,93,0.00,,,0.00,Wunderground v.1.15,2013-11-04 11:28:00,
2013-11-04 06:30:00,34.0,32.2,30.49,NNW,342,0.0,0.0,93,0.00,,,0.00,Wunderground v.1.15,2013-11-04 11:30:00,
2013-11-04 06:31:00,34.0,32.2,30.49,NNW,341,0.0,0.0,93,0.00,,,0.00,Wunderground v.1.15,2013-11-04 11:31:00,
2013-11-04 06:32:00,34.0,32.2,30.49,NNW,341,0.0,0.0,93,0.00,,,0.00,Wunderground v.1.15,2013-11-04 11:32:00,
2013-11-04 06:33:00,33.9,32.1,30.49,N/A,-737280,0.0,-999.0,93,0.00,,,0.00,Wunderground v.1.15,2013-11-04 11:33:00,
2013-11-04 06:34:00,33.9,32.1,30.49,NNW,341,0.0,0.0,93,0.00,,,0.00,Wunderground v.1.15,2013-11-04 11:34:00,
2013-11-04 06:36:00,33.9,32.1,30.49,NNW,341,0.0,0.0,93,0.00,,,0.00,Wunderground v.1.15,2013-11-04 11:36:00,
2013-11-04 06:37:00,33.9,32.1,30.49,NNW,341,0.0,0.0,93,0.00,,,0.00,Wunderground v.1.15,2013-11-04 11:37:00,
2013-11-04 06:38:00,33.8,32.0,30.49,NNW,341,0.0,0.0,93,0.00,,,0.00,Wunderground v.1.15,2013-11-04 11:38:00,
2013-11-04 06:39:00,33.8,32.0,30.49,NNW,341,0.0,0.0,93,0.00,,,0.00,Wunderground v.1.15,2013-11-04 11:39:00,
2013-11-04 06:40:00,33.8,32.0,30.49,NNW,341,0.0,0.0,93,0.00,,,0.00,Wunderground v.1.15,2013-11-04 11:40:00,
2013-11-04 06:41:00,33.9,32.1,30.49,NNW,341,0.0,0.0,93,0.00,,,0.00,Wunderground v.1.15,2013-11-04 11:41:00,
2013-11-04 06:42:00,33.8,32.0,30.50,NNW,341,0.0,0.0,93,0.00,,,0.00,Wunderground v.1.15,2013-11-04 11:42:00,
2013-11-04 06:43:00,33.8,32.0,30.50,NNW,341,0.0,0.0,93,0.00,,,0.00,Wunderground v.1.15,2013-11-04 11:43:00,
2013-11-04 06:45:00,33.9,32.1,30.50,NNW,341,0.0,0.0,93,0.00,,,0.00,Wunderground v.1.15,2013-11-04 11:45:00,
2013-11-04 06:46:00,34.0,32.2,30.50,NNW,341,0.0,0.0,93,0.00,,,0.00,Wunderground v.1.15,2013-11-04 11:46:00,
2013-11-04 06:47:00,34.0,32.2,30.50,NNW,341,0.0,0.0,93,0.00,,,0.00,Wunderground v.1.15,2013-11-04 11:47:00,
2013-11-04 06:48:00,34.0,32.2,30.50,NNW,341,0.0,0.0,93,0.00,,,0.00,Wunderground v.1.15,2013-11-04 11:48:00,
2013-11-04 06:50:00,34.0,31.9,30.50,NNW,341,0.0,0.0,92,0.00,,,0.00,Wunderground v.1.15,2013-11-04 11:50:00,
2013-11-04 06:52:00,34.0,31.9,30.50,NNW,341,0.0,0.0,92,0.00,,,0.00,Wunderground v.1.15,2013-11-04 11:52:00,
2013-11-04 06:53:00,33.9,31.8,30.50,NNW,341,0.0,0.0,92,0.00,,,0.00,Wunderground v.1.15,2013-11-04 11:53:00,
2013-11-04 06:55:00,33.9,31.8,30.50,NNW,341,0.0,0.0,92,0.00,,,0.00,Wunderground v.1.15,2013-11-04 11:55:00,
2013-11-04 06:57:00,33.8,31.7,30.50,NNW,342,0.0,0.0,92,0.00,,,0.00,Wunderground v.1.15,2013-11-04 11:57:00,
2013-11-04 06:58:00,33.8,31.7,30.50,N/A,-737280,0.0,-999.0,92,0.00,,,0.00,Wunderground v.1.15,2013-11-04 11:58:00,
2013-11-04 06:59:00,33.8,31.7,30.50,NNW,341,0.0,0.0,92,0.00,,,0.00,Wunderground v.1.15,2013-11-04 11:59:00,
2013-11-04 07:01:00,33.8,31.7,30.50,NNW,341,0.0,0.0,92,0.00,,,0.00,Wunderground v.1.15,2013-11-04 12:01:00,
2013-11-04 07:02:00,33.8,31.7,30.50,NNW,341,0.0,0.0,92,0.00,,,0.00,Wunderground v.1.15,2013-11-04 12:02:00,
2013-11-04 07:03:00,33.9,31.8,30.50,NNW,342,0.0,0.0,92,0.00,,,0.00,Wunderground v.1.15,2013-11-04 12:03:00,
2013-11-04 07:04:00,33.8,31.7,30.50,NNW,342,0.0,0.0,92,0.00,,,0.00,Wunderground v.1.15,2013-11-04 12:04:00,
2013-11-04 07:07:00,33.9,31.8,30.50,NNW,341,0.0,0.0,92,0.00,,,0.00,Wunderground v.1.15,2013-11-04 12:07:00,
2013-11-04 07:08:00,34.0,31.9,30.50,NNW,341,0.0,0.0,92,0.00,,,0.00,Wunderground v.1.15,2013-11-04 12:08:00,
2013-11-04 07:09:00,34.0,31.9,30.50,NNW,341,0.0,0.0,92,0.00,,,0.00,Wunderground v.1.15,2013-11-04 12:09:00,
2013-11-04 07:12:00,34.1,32.0,30.51,NNW,341,0.0,0.0,92,0.00,,,0.00,Wunderground v.1.15,2013-11-04 12:12:00,
2013-11-04 07:13:00,34.1,32.0,30.51,NNW,341,0.0,0.0,92,0.00,,,0.00,Wunderground v.1.15,2013-11-04 12:13:00,
2013-11-04 07:14:00,34.1,32.0,30.51,NNW,341,0.0,0.0,92,0.00,,,0.00,Wunderground v.1.15,2013-11-04 12:14:00,
2013-11-04 07:17:00,34.2,32.1,30.51,NNW,341,0.0,0.0,92,0.00,,,0.00,Wunderground v.1.15,2013-11-04 12:17:00,
2013-11-04 07:18:00,34.2,32.1,30.51,NNW,341,0.0,0.0,92,0.00,,,0.00,Wunderground v.1.15,2013-11-04 12:18:00,
2013-11-04 07:19:00,34.2,32.1,30.51,NNW,341,0.0,0.0,92,0.00,,,0.00,Wunderground v.1.15,2013-11-04 12:19:00,
2013-11-04 07:23:00,34.3,31.9,30.52,NNW,341,0.0,0.0,91,0.00,,,0.00,Wunderground v.1.15,2013-11-04 12:23:00,
2013-11-04 07:24:00,34.3,31.9,30.52,NNW,341,0.0,1.0,91,0.00,,,0.00,Wunderground v.1.15,2013-11-04 12:24:00,
2013-11-04 07:28:00,34.9,32.3,30.52,North,355,0.0,2.0,90,0.00,,,0.00,Wunderground v.1.15,2013-11-04 12:28:00,
2013-11-04 07:29:00,34.9,32.3,30.52,North,355,0.0,2.0,90,0.00,,,0.00,Wunderground v.1.15,2013-11-04 12:29:00,
2013-11-04 07:30:00,35.1,32.5,30.52,North,355,0.0,0.0,90,0.00,,,0.00,Wunderground v.1.15,2013-11-04 12:30:00,
2013-11-04 07:33:00,35.4,32.5,30.53,WNW,295,0.0,1.0,89,0.00,,,0.00,Wunderground v.1.15,2013-11-04 12:33:00,
2013-11-04 07:34:00,35.4,32.2,30.53,WNW,294,0.0,1.0,88,0.00,,,0.00,Wunderground v.1.15,2013-11-04 12:34:00,
2013-11-04 07:35:00,35.6,32.4,30.53,North,359,0.0,1.0,88,0.00,,,0.00,Wunderground v.1.15,2013-11-04 12:35:00,
2013-11-04 07:38:00,36.0,32.5,30.53,North,360,0.0,1.0,87,0.00,,,0.00,Wunderground v.1.15,2013-11-04 12:38:00,
2013-11-04 07:39:00,36.0,32.5,30.53,North,360,0.0,1.0,87,0.00,,,0.00,Wunderground v.1.15,2013-11-04 12:39:00,
2013-11-04 07:40:00,36.1,32.6,30.53,North,360,0.0,0.0,87,0.00,,,0.00,Wunderground v.1.15,2013-11-04 12:40:00,
2013-11-04 07:41:00,36.1,32.6,30.53,North,359,0.0,0.0,87,0.00,,,0.00,Wunderground v.1.15,2013-11-04 12:41:00,
2013-11-04 07:43:00,36.2,32.4,30.54,WNW,303,0.0,1.0,86,0.00,,,0.00,Wunderground v.1.15,2013-11-04 12:43:00,
2013-11-04 07:44:00,36.3,32.5,30.54,WNW,303,0.0,1.0,86,0.00,,,0.00,Wunderground v.1.15,2013-11-04 12:44:00,
2013-11-04 07:45:00,36.3,32.5,30.54,WNW,303,0.0,1.0,86,0.00,,,0.00,Wunderground v.1.15,2013-11-04 12:45:00,
2013-11-04 07:46:00,36.4,32.6,30.54,NW,304,0.0,1.0,86,0.00,,,0.00,Wunderground v.1.15,2013-11-04 12:46:00,
2013-11-04 07:48:00,36.7,32.6,30.54,WNW,293,0.0,-999.0,85,0.00,,,0.00,Wunderground v.1.15,2013-11-04 12:48:00,
2013-11-04 07:49:00,36.6,32.5,30.54,WNW,302,0.0,1.0,85,0.00,,,0.00,Wunderground v.1.15,2013-11-04 12:49:00,
2013-11-04 07:50:00,36.6,32.5,30.54,WNW,302,0.0,0.0,85,0.00,,,0.00,Wunderground v.1.15,2013-11-04 12:50:00,
2013-11-04 07:51:00,36.7,32.6,30.54,WNW,302,0.0,0.0,85,0.00,,,0.00,Wunderground v.1.15,2013-11-04 12:51:00,
2013-11-04 07:52:00,36.7,32.6,30.54,NNE,24,2.0,3.0,85,0.00,,,0.00,Wunderground v.1.15,2013-11-04 12:52:00,
2013-11-04 07:53:00,37.0,32.9,30.54,NNE,23,0.0,-999.0,85,0.00,,,0.00,Wunderground v.1.15,2013-11-04 12:53:00,
2013-11-04 07:54:00,36.8,32.4,30.54,NNE,18,0.0,3.0,84,0.00,,,0.00,Wunderground v.1.15,2013-11-04 12:54:00,
2013-11-04 07:55:00,36.9,32.5,30.54,NNE,20,0.0,3.0,84,0.00,,,0.00,Wunderground v.1.15,2013-11-04 12:55:00,
2013-11-04 07:56:00,36.9,32.8,30.54,NNE,20,0.0,3.0,85,0.00,,,0.00,Wunderground v.1.15,2013-11-04 12:56:00,
2013-11-04 07:57:00,37.0,32.6,30.54,NNE,19,0.0,3.0,84,0.00,,,0.00,Wunderground v.1.15,2013-11-04 12:57:00,
2013-11-04 07:58:00,37.1,32.7,30.54,N/A,-737280,0.0,-999.0,84,0.00,,,0.00,Wunderground v.1.15,2013-11-04 12:58:00,
2013-11-04 08:00:00,37.1,32.7,30.54,NNE,20,0.0,0.0,84,0.00,,,0.00,Wunderground v.1.15,2013-11-04 13:00:00,
2013-11-04 08:01:00,37.1,32.7,30.54,NNE,20,0.0,0.0,84,0.00,,,0.00,Wunderground v.1.15,2013-11-04 13:01:00,
2013-11-04 08:02:00,37.1,32.7,30.54,NNE,20,0.0,0.0,84,0.00,,,0.00,Wunderground v.1.15,2013-11-04 13:02:00,
2013-11-04 08:03:00,37.3,32.6,30.54,N/A,-737280,0.0,-999.0,83,0.00,,,0.00,Wunderground v.1.15,2013-11-04 13:03:00,
2013-11-04 08:05:00,37.2,32.5,30.54,NNE,20,0.0,0.0,83,0.00,,,0.00,Wunderground v.1.15,2013-11-04 13:05:00,
2013-11-04 08:06:00,37.3,32.6,30.54,NNE,20,0.0,0.0,83,0.00,,,0.00,Wunderground v.1.15,2013-11-04 13:06:00,
2013-11-04 08:07:00,37.4,32.7,30.54,NNE,20,0.0,0.0,83,0.00,,,0.00,Wunderground v.1.15,2013-11-04 13:07:00,
2013-11-04 08:08:00,37.4,32.7,30.54,NNE,20,0.0,0.0,83,0.00,,,0.00,Wunderground v.1.15,2013-11-04 13:08:00,
2013-11-04 08:10:00,37.6,32.9,30.54,NNE,20,0.0,0.0,83,0.00,,,0.00,Wunderground v.1.15,2013-11-04 13:10:00,
2013-11-04 08:11:00,37.7,33.0,30.54,NNE,20,0.0,0.0,83,0.00,,,0.00,Wunderground v.1.15,2013-11-04 13:11:00,
2013-11-04 08:12:00,37.8,32.8,30.54,SE,131,0.0,1.0,82,0.00,,,0.00,Wunderground v.1.15,2013-11-04 13:12:00,
2013-11-04 08:13:00,37.9,32.9,30.54,SE,131,0.0,1.0,82,0.00,,,0.00,Wunderground v.1.15,2013-11-04 13:13:00,
2013-11-04 08:15:00,38.1,33.1,30.54,SE,131,0.0,1.0,82,0.00,,,0.00,Wunderground v.1.15,2013-11-04 13:15:00,
2013-11-04 08:16:00,38.1,33.1,30.54,West,281,1.0,1.0,82,0.00,,,0.00,Wunderground v.1.15,2013-11-04 13:16:00,
2013-11-04 08:17:00,38.3,33.3,30.54,North,353,0.0,2.0,82,0.00,,,0.00,Wunderground v.1.15,2013-11-04 13:17:00,
2013-11-04 08:18:00,38.7,33.4,30.54,ESE,113,0.0,-999.0,81,0.00,,,0.00,Wunderground v.1.15,2013-11-04 13:18:00,
2013-11-04 08:20:00,38.6,33.6,30.54,ESE,113,0.0,0.0,82,0.00,,,0.00,Wunderground v.1.15,2013-11-04 13:20:00,
2013-11-04 08:21:00,38.7,33.4,30.54,SSE,165,0.0,0.0,81,0.00,,,0.00,Wunderground v.1.15,2013-11-04 13:21:00,
2013-11-04 08:22:00,38.9,33.9,30.54,WSW,248,0.0,1.0,82,0.00,,,0.00,Wunderground v.1.15,2013-11-04 13:22:00,
2013-11-04 08:23:00,39.0,33.7,30.54,North,349,0.0,1.0,81,0.00,,,0.00,Wunderground v.1.15,2013-11-04 13:23:00,
2013-11-04 08:25:00,39.3,34.0,30.54,North,350,0.0,1.0,81,0.00,,,0.00,Wunderground v.1.15,2013-11-04 13:25:00,
2013-11-04 08:27:00,39.4,33.4,30.54,NNW,332,1.0,2.0,79,0.00,,,0.00,Wunderground v.1.15,2013-11-04 13:27:00,
2013-11-04 08:28:00,39.7,33.7,30.54,NW,311,0.0,2.0,79,0.00,,,0.00,Wunderground v.1.15,2013-11-04 13:28:00,
2013-11-04 08:30:00,40.0,33.7,30.54,North,359,1.0,2.0,78,0.00,,,0.00,Wunderground v.1.15,2013-11-04 13:30:00,
2013-11-04 08:32:00,40.2,33.9,30.55,ESE,109,0.0,2.0,78,0.00,,,0.00,Wunderground v.1.15,2013-11-04 13:32:00,
2013-11-04 08:33:00,40.5,34.2,30.55,NW,316,2.0,3.0,78,0.00,,,0.00,Wunderground v.1.15,2013-11-04 13:33:00,
2013-11-04 08:34:00,40.5,34.2,30.55,ESE,113,2.0,3.0,78,0.00,,,0.00,Wunderground v.1.15,2013-11-04 13:34:00,
2013-11-04 08:36:00,40.7,34.0,30.54,NNE,21,1.0,3.0,77,0.00,,,0.00,Wunderground v.1.15,2013-11-04 13:36:00,
2013-11-04 08:37:00,40.9,33.9,30.54,ENE,62,2.0,3.0,76,0.00,,,0.00,Wunderground v.1.15,2013-11-04 13:37:00,
2013-11-04 08:38:00,41.3,33.6,30.55,ENE,68,0.0,-999.0,74,0.00,,,0.00,Wunderground v.1.15,2013-11-04 13:38:00,
2013-11-04 08:39:00,41.1,33.4,30.55,ENE,63,0.0,3.0,74,0.00,,,0.00,Wunderground v.1.15,2013-11-04 13:39:00,
2013-11-04 08:41:00,41.3,33.6,30.55,ENE,62,1.0,1.0,74,0.00,,,0.00,Wunderground v.1.15,2013-11-04 13:41:00,
2013-11-04 08:42:00,41.4,33.7,30.54,ENE,63,0.0,1.0,74,0.00,,,0.00,Wunderground v.1.15,2013-11-04 13:42:00,
2013-11-04 08:43:00,41.8,34.5,30.54,ENE,68,0.0,-999.0,75,0.00,,,0.00,Wunderground v.1.15,2013-11-04 13:43:00,
2013-11-04 08:44:00,41.6,33.9,30.54,ENE,62,0.0,1.0,74,0.00,,,0.00,Wunderground v.1.15,2013-11-04 13:44:00,
2013-11-04 08:46:00,41.8,34.5,30.54,ENE,62,0.0,1.0,75,0.00,,,0.00,Wunderground v.1.15,2013-11-04 13:46:00,
2013-11-04 08:47:00,41.9,33.9,30.54,ENE,64,0.0,2.0,73,0.00,,,0.00,Wunderground v.1.15,2013-11-04 13:47:00,
2013-11-04 08:48:00,42.5,34.5,30.55,ENE,68,1.0,-999.0,73,0.00,,,0.00,Wunderground v.1.15,2013-11-04 13:48:00,
2013-11-04 08:49:00,42.2,34.5,30.54,NE,55,0.0,2.0,74,0.00,,,0.00,Wunderground v.1.15,2013-11-04 13:49:00,
2013-11-04 08:50:00,42.3,34.6,30.54,NW,319,1.0,1.0,74,0.00,,,0.00,Wunderground v.1.15,2013-11-04 13:50:00,
2013-11-04 08:51:00,42.5,34.5,30.55,East,82,0.0,5.0,73,0.00,,,0.00,Wunderground v.1.15,2013-11-04 13:51:00,
2013-11-04 08:52:00,42.7,35.0,30.55,NNW,339,2.0,5.0,74,0.00,,,0.00,Wunderground v.1.15,2013-11-04 13:52:00,
2013-11-04 08:53:00,43.2,34.1,30.55,ENE,68,1.0,-999.0,70,0.00,,,0.00,Wunderground v.1.15,2013-11-04 13:53:00,
2013-11-04 08:54:00,43.1,34.3,30.54,NE,39,0.0,6.0,71,0.00,,,0.00,Wunderground v.1.15,2013-11-04 13:54:00,
2013-11-04 08:55:00,43.1,34.0,30.54,NE,51,0.0,6.0,70,0.00,,,0.00,Wunderground v.1.15,2013-11-04 13:55:00,
2013-11-04 08:56:00,43.2,34.1,30.55,NE,55,1.0,6.0,70,0.00,,,0.00,Wunderground v.1.15,2013-11-04 13:56:00,
2013-11-04 08:57:00,43.3,33.8,30.55,NE,55,1.0,6.0,69,0.00,,,0.00,Wunderground v.1.15,2013-11-04 13:57:00,
2013-11-04 08:58:00,43.5,33.3,30.54,NE,45,1.0,-999.0,67,0.00,,,0.00,Wunderground v.1.15,2013-11-04 13:58:00,
2013-11-04 08:59:00,43.5,33.3,30.54,NE,41,1.0,6.0,67,0.00,,,0.00,Wunderground v.1.15,2013-11-04 13:59:00,
2013-11-04 09:01:00,43.5,33.3,30.54,North,359,1.0,2.0,67,0.00,,,0.00,Wunderground v.1.15,2013-11-04 14:01:00,
2013-11-04 09:02:00,43.5,33.3,30.54,NE,51,1.0,2.0,67,0.00,,,0.00,Wunderground v.1.15,2013-11-04 14:02:00,
2013-11-04 09:03:00,43.6,33.4,30.54,NE,45,1.0,-999.0,67,0.00,,,0.00,Wunderground v.1.15,2013-11-04 14:03:00,
2013-11-04 09:05:00,43.6,33.7,30.54,ENE,65,0.0,2.0,68,0.00,,,0.00,Wunderground v.1.15,2013-11-04 14:05:00,
2013-11-04 09:06:00,43.7,33.5,30.54,NE,55,0.0,2.0,67,0.00,,,0.00,Wunderground v.1.15,2013-11-04 14:06:00,
2013-11-04 09:07:00,43.7,33.5,30.54,NE,55,0.0,2.0,67,0.00,,,0.00,Wunderground v.1.15,2013-11-04 14:07:00,
2013-11-04 09:08:00,43.8,33.9,30.55,NW,315,0.0,-999.0,68,0.00,,,0.00,Wunderground v.1.15,2013-11-04 14:08:00,
2013-11-04 09:10:00,43.8,33.9,30.55,NE,55,0.0,1.0,68,0.00,,,0.00,Wunderground v.1.15,2013-11-04 14:10:00,
2013-11-04 09:11:00,43.9,34.0,30.55,NW,305,0.0,1.0,68,0.00,,,0.00,Wunderground v.1.15,2013-11-04 14:11:00,
2013-11-04 09:12:00,43.9,33.6,30.55,NW,305,0.0,1.0,67,0.00,,,0.00,Wunderground v.1.15,2013-11-04 14:12:00,
2013-11-04 09:13:00,44.0,34.1,30.55,NW,311,0.0,1.0,68,0.00,,,0.00,Wunderground v.1.15,2013-11-04 14:13:00,
2013-11-04 09:15:00,44.1,33.8,30.55,NE,44,0.0,3.0,67,0.00,,,0.00,Wunderground v.1.15,2013-11-04 14:15:00,
2013-11-04 09:16:00,44.1,33.1,30.55,NE,47,2.0,3.0,65,0.00,,,0.00,Wunderground v.1.15,2013-11-04 14:16:00,
2013-11-04 09:17:00,44.1,33.1,30.55,North,357,0.0,3.0,65,0.00,,,0.00,Wunderground v.1.15,2013-11-04 14:17:00,
2013-11-04 09:18:00,44.2,33.2,30.55,North,357,0.0,3.0,65,0.00,,,0.00,Wunderground v.1.15,2013-11-04 14:18:00,
2013-11-04 09:20:00,44.5,33.8,30.55,East,83,0.0,1.0,66,0.00,,,0.00,Wunderground v.1.15,2013-11-04 14:20:00,
2013-11-04 09:21:00,44.5,33.1,30.55,East,85,1.0,1.0,64,0.00,,,0.00,Wunderground v.1.15,2013-11-04 14:21:00,
2013-11-04 09:22:00,44.5,33.1,30.55,East,100,2.0,2.0,64,0.00,,,0.00,Wunderground v.1.15,2013-11-04 14:22:00,
2013-11-04 09:23:00,44.6,33.6,30.55,ENE,68,0.0,2.0,65,0.00,,,0.00,Wunderground v.1.15,2013-11-04 14:23:00,
2013-11-04 09:26:00,44.8,33.7,30.55,WSW,256,0.0,2.0,65,0.00,,,0.00,Wunderground v.1.15,2013-11-04 14:26:00,
2013-11-04 09:27:00,45.0,33.9,30.55,NW,310,4.0,4.0,65,0.00,,,0.00,Wunderground v.1.15,2013-11-04 14:27:00,
2013-11-04 09:28:00,45.0,33.9,30.55,WNW,288,5.0,5.0,65,0.00,,,0.00,Wunderground v.1.15,2013-11-04 14:28:00,
2013-11-04 09:31:00,45.2,33.3,30.55,NE,38,0.0,6.0,63,0.00,,,0.00,Wunderground v.1.15,2013-11-04 14:31:00,
2013-11-04 09:33:00,45.3,33.0,30.55,NNE,31,2.0,6.0,62,0.00,,,0.00,Wunderground v.1.15,2013-11-04 14:33:00,
2013-11-04 09:36:00,45.6,33.3,30.55,NE,46,0.0,6.0,62,0.00,,,0.00,Wunderground v.1.15,2013-11-04 14:36:00,
2013-11-04 09:38:00,45.8,33.1,30.55,NNW,346,2.0,6.0,61,0.00,,,0.00,Wunderground v.1.15,2013-11-04 14:38:00,
2013-11-04 09:39:00,45.9,34.0,30.55,ENE,70,0.0,6.0,63,0.00,,,0.00,Wunderground v.1.15,2013-11-04 14:39:00,
2013-11-04 09:41:00,46.2,33.1,30.54,ENE,78,1.0,5.0,60,0.00,,,0.00,Wunderground v.1.15,2013-11-04 14:41:00,
2013-11-04 09:42:00,46.2,33.1,30.54,ENE,78,0.0,5.0,60,0.00,,,0.00,Wunderground v.1.15,2013-11-04 14:42:00,
2013-11-04 09:43:00,46.4,33.3,30.54,ENE,68,1.0,5.0,60,0.00,,,0.00,Wunderground v.1.15,2013-11-04 14:43:00,
2013-11-04 09:44:00,46.4,32.8,30.54,ENE,68,2.0,5.0,59,0.00,,,0.00,Wunderground v.1.15,2013-11-04 14:44:00,
2013-11-04 09:47:00,46.8,34.0,30.53,NNW,328,0.0,5.0,61,0.00,,,0.00,Wunderground v.1.15,2013-11-04 14:47:00,
2013-11-04 09:48:00,47.1,33.5,30.53,NE,37,0.0,5.0,59,0.00,,,0.00,Wunderground v.1.15,2013-11-04 14:48:00,
2013-11-04 09:49:00,47.1,33.5,30.53,NE,37,1.0,5.0,59,0.00,,,0.00,Wunderground v.1.15,2013-11-04 14:49:00,
2013-11-04 09:52:00,47.5,33.4,30.54,NE,49,2.0,3.0,58,0.00,,,0.00,Wunderground v.1.15,2013-11-04 14:52:00,
2013-11-04 09:53:00,47.6,33.1,30.54,NE,45,2.0,-999.0,57,0.00,,,0.00,Wunderground v.1.15,2013-11-04 14:53:00,
2013-11-04 09:54:00,47.6,34.0,30.54,WNW,284,1.0,3.0,59,0.00,,,0.00,Wunderground v.1.15,2013-11-04 14:54:00,
2013-11-04 09:57:00,47.6,33.1,30.54,NW,312,4.0,5.0,57,0.00,,,0.00,Wunderground v.1.15,2013-11-04 14:57:00,
2013-11-04 09:58:00,47.6,33.1,30.55,North,0,1.0,-999.0,57,0.00,,,0.00,Wunderground v.1.15,2013-11-04 14:58:00,
2013-11-04 09:59:00,47.6,33.1,30.54,North,6,0.0,5.0,57,0.00,,,0.00,Wunderground v.1.15,2013-11-04 14:59:00,
2013-11-04 10:00:00,47.6,32.7,30.54,NW,305,2.0,3.0,56,0.00,,,0.00,Wunderground v.1.15,2013-11-04 15:00:00,
2013-11-04 10:02:00,47.7,32.8,30.55,NE,39,2.0,3.0,56,0.00,,,0.00,Wunderground v.1.15,2013-11-04 15:02:00,
2013-11-04 10:03:00,47.7,33.2,30.55,North,359,2.0,3.0,57,0.00,,,0.00,Wunderground v.1.15,2013-11-04 15:03:00,
2013-11-04 10:04:00,47.8,32.9,30.55,NE,46,2.0,4.0,56,0.00,,,0.00,Wunderground v.1.15,2013-11-04 15:04:00,
2013-11-04 10:05:00,47.8,32.9,30.55,NE,53,0.0,4.0,56,0.00,,,0.00,Wunderground v.1.15,2013-11-04 15:05:00,
2013-11-04 10:07:00,47.8,32.4,30.54,East,91,0.0,4.0,55,0.00,,,0.00,Wunderground v.1.15,2013-11-04 15:07:00,
2013-11-04 10:08:00,47.8,32.4,30.54,East,84,2.0,4.0,55,0.00,,,0.00,Wunderground v.1.15,2013-11-04 15:08:00,
2013-11-04 10:09:00,47.7,32.3,30.54,ESE,120,0.0,4.0,55,0.00,,,0.00,Wunderground v.1.15,2013-11-04 15:09:00,
2013-11-04 10:10:00,47.7,33.2,30.54,East,96,1.0,2.0,57,0.00,,,0.00,Wunderground v.1.15,2013-11-04 15:10:00,
2013-11-04 10:13:00,47.7,33.2,30.54,ESE,108,1.0,2.0,57,0.00,,,0.00,Wunderground v.1.15,2013-11-04 15:13:00,
2013-11-04 10:15:00,47.7,32.3,30.54,ENE,73,0.0,3.0,55,0.00,,,0.00,Wunderground v.1.15,2013-11-04 15:15:00,
2013-11-04 10:16:00,47.7,32.3,30.54,ENE,73,0.0,3.0,55,0.00,,,0.00,Wunderground v.1.15,2013-11-04 15:16:00,
2013-11-04 10:18:00,47.8,32.4,30.55,ENE,74,1.0,3.0,55,0.00,,,0.00,Wunderground v.1.15,2013-11-04 15:18:00,
2013-11-04 10:20:00,48.1,33.1,30.55,NE,36,2.0,2.0,56,0.00,,,0.00,Wunderground v.1.15,2013-11-04 15:20:00,
2013-11-04 10:21:00,48.2,33.2,30.55,NNW,330,1.0,3.0,56,0.00,,,0.00,Wunderground v.1.15,2013-11-04 15:21:00,
2013-11-04 10:23:00,48.4,32.5,30.55,ENE,73,1.0,3.0,54,0.00,,,0.00,Wunderground v.1.15,2013-11-04 15:23:00,
2013-11-04 10:25:00,48.7,32.8,30.54,SSE,160,2.0,4.0,54,0.00,,,0.00,Wunderground v.1.15,2013-11-04 15:25:00,
2013-11-04 10:26:00,48.8,32.9,30.54,South,177,2.0,4.0,54,0.00,,,0.00,Wunderground v.1.15,2013-11-04 15:26:00,
2013-11-04 10:28:00,48.9,32.5,30.54,NNE,32,5.0,5.0,53,0.00,,,0.00,Wunderground v.1.15,2013-11-04 15:28:00,
2013-11-04 10:30:00,48.9,32.5,30.55,North,7,0.0,2.0,53,0.00,,,0.00,Wunderground v.1.15,2013-11-04 15:30:00,
2013-11-04 10:31:00,49.0,32.6,30.55,ENE,70,2.0,2.0,53,0.00,,,0.00,Wunderground v.1.15,2013-11-04 15:31:00,
2013-11-04 10:33:00,49.1,32.2,30.55,NNW,347,2.0,5.0,52,0.00,,,0.00,Wunderground v.1.15,2013-11-04 15:33:00,
2013-11-04 10:34:00,49.1,32.2,30.55,NNE,25,0.0,5.0,52,0.00,,,0.00,Wunderground v.1.15,2013-11-04 15:34:00,
2013-11-04 10:36:00,49.3,32.9,30.55,North,11,6.0,6.0,53,0.00,,,0.00,Wunderground v.1.15,2013-11-04 15:36:00,
2013-11-04 10:37:00,49.4,32.5,30.55,NNE,23,1.0,6.0,52,0.00,,,0.00,Wunderground v.1.15,2013-11-04 15:37:00,
2013-11-04 10:38:00,49.5,32.1,30.55,East,87,0.0,6.0,51,0.00,,,0.00,Wunderground v.1.15,2013-11-04 15:38:00,
2013-11-04 10:39:00,49.6,33.2,30.55,East,84,0.0,6.0,53,0.00,,,0.00,Wunderground v.1.15,2013-11-04 15:39:00,
2013-11-04 10:41:00,49.7,32.3,30.55,ENE,73,2.0,3.0,51,0.00,,,0.00,Wunderground v.1.15,2013-11-04 15:41:00,
2013-11-04 10:42:00,49.8,31.9,30.55,ENE,72,0.0,3.0,50,0.00,,,0.00,Wunderground v.1.15,2013-11-04 15:42:00,
2013-11-04 10:43:00,50.3,32.4,30.55,NNE,23,1.0,-999.0,50,0.00,,,0.00,Wunderground v.1.15,2013-11-04 15:43:00,
2013-11-04 10:44:00,50.0,32.6,30.55,NNE,32,1.0,3.0,51,0.00,,,0.00,Wunderground v.1.15,2013-11-04 15:44:00,
2013-11-04 10:46:00,50.3,32.4,30.56,East,84,0.0,4.0,50,0.00,,,0.00,Wunderground v.1.15,2013-11-04 15:46:00,
2013-11-04 10:47:00,50.4,32.9,30.56,NW,326,2.0,4.0,51,0.00,,,0.00,Wunderground v.1.15,2013-11-04 15:47:00,
2013-11-04 10:48:00,50.8,31.3,30.55,ENE,68,1.0,-999.0,47,0.00,,,0.00,Wunderground v.1.15,2013-11-04 15:48:00,
2013-11-04 10:49:00,50.6,32.6,30.56,NE,42,3.0,4.0,50,0.00,,,0.00,Wunderground v.1.15,2013-11-04 15:49:00,
2013-11-04 10:51:00,50.8,31.3,30.55,ESE,122,0.0,2.0,47,0.00,,,0.00,Wunderground v.1.15,2013-11-04 15:51:00,
2013-11-04 10:52:00,50.7,31.2,30.55,ESE,122,0.0,2.0,47,0.00,,,0.00,Wunderground v.1.15,2013-11-04 15:52:00,
2013-11-04 10:53:00,51.2,31.6,30.55,West,270,1.0,-999.0,47,0.00,,,0.00,Wunderground v.1.15,2013-11-04 15:53:00,
2013-11-04 10:54:00,50.9,32.4,30.55,West,267,1.0,7.0,49,0.00,,,0.00,Wunderground v.1.15,2013-11-04 15:54:00,
2013-11-04 10:55:00,51.1,32.6,30.55,West,262,1.0,7.0,49,0.00,,,0.00,Wunderground v.1.15,2013-11-04 15:55:00,
2013-11-04 10:57:00,51.3,31.7,30.55,SSE,151,1.0,7.0,47,0.00,,,0.00,Wunderground v.1.15,2013-11-04 15:57:00,
2013-11-04 10:58:00,51.9,33.8,30.55,SSE,158,0.0,-999.0,50,0.00,,,0.00,Wunderground v.1.15,2013-11-04 15:58:00,
2013-11-04 10:59:00,51.6,32.5,30.55,SSE,148,0.0,7.0,48,0.00,,,0.00,Wunderground v.1.15,2013-11-04 15:59:00,
2013-11-04 11:00:00,51.8,33.7,30.55,ESE,117,0.0,1.0,50,0.00,,,0.00,Wunderground v.1.15,2013-11-04 16:00:00,
2013-11-04 11:02:00,52.0,31.8,30.55,WNW,300,0.0,3.0,46,0.00,,,0.00,Wunderground v.1.15,2013-11-04 16:02:00,
2013-11-04 11:03:00,52.2,32.0,30.55,West,260,0.0,3.0,46,0.00,,,0.00,Wunderground v.1.15,2013-11-04 16:03:00,
2013-11-04 11:04:00,52.3,31.6,30.55,West,260,0.0,3.0,45,0.00,,,0.00,Wunderground v.1.15,2013-11-04 16:04:00,
2013-11-04 11:06:00,52.4,32.7,30.55,West,278,3.0,3.0,47,0.00,,,0.00,Wunderground v.1.15,2013-11-04 16:06:00,
2013-11-04 11:07:00,52.4,31.7,30.55,SSE,148,1.0,4.0,45,0.00,,,0.00,Wunderground v.1.15,2013-11-04 16:07:00,
2013-11-04 11:08:00,52.3,31.6,30.55,ENE,78,1.0,4.0,45,0.00,,,0.00,Wunderground v.1.15,2013-11-04 16:08:00,
2013-11-04 11:09:00,52.3,32.1,30.55,WNW,302,3.0,4.0,46,0.00,,,0.00,Wunderground v.1.15,2013-11-04 16:09:00,
2013-11-04 11:10:00,52.3,31.6,30.55,NNE,25,3.0,3.0,45,0.00,,,0.00,Wunderground v.1.15,2013-11-04 16:10:00,
2013-11-04 11:11:00,52.3,32.1,30.55,East,86,3.0,5.0,46,0.00,,,0.00,Wunderground v.1.15,2013-11-04 16:11:00,
2013-11-04 11:12:00,52.3,32.1,30.55,ENE,60,1.0,5.0,46,0.00,,,0.00,Wunderground v.1.15,2013-11-04 16:12:00,
2013-11-04 11:13:00,52.3,32.1,30.55,ENE,77,1.0,5.0,46,0.00,,,0.00,Wunderground v.1.15,2013-11-04 16:13:00,
2013-11-04 11:14:00,52.4,32.2,30.55,South,172,0.0,5.0,46,0.00,,,0.00,Wunderground v.1.15,2013-11-04 16:14:00,
2013-11-04 11:15:00,52.4,31.1,30.55,NNW,336,3.0,5.0,44,0.00,,,0.00,Wunderground v.1.15,2013-11-04 16:15:00,
2013-11-04 11:16:00,52.5,30.0,30.55,WNW,288,0.0,5.0,42,0.00,,,0.00,Wunderground v.1.15,2013-11-04 16:16:00,
2013-11-04 11:18:00,52.6,30.7,30.55,ENE,72,1.0,5.0,43,0.00,,,0.00,Wunderground v.1.15,2013-11-04 16:18:00,
2013-11-04 11:19:00,52.6,31.3,30.55,ENE,70,2.0,5.0,44,0.00,,,0.00,Wunderground v.1.15,2013-11-04 16:19:00,
2013-11-04 11:20:00,52.7,31.4,30.55,West,277,3.0,5.0,44,0.00,,,0.00,Wunderground v.1.15,2013-11-04 16:20:00,
2013-11-04 11:21:00,52.7,31.4,30.55,ENE,68,0.0,4.0,44,0.00,,,0.00,Wunderground v.1.15,2013-11-04 16:21:00,
2013-11-04 11:23:00,52.5,31.8,30.54,WSW,256,2.0,4.0,45,0.00,,,0.00,Wunderground v.1.15,2013-11-04 16:23:00,
2013-11-04 11:25:00,52.5,31.8,30.54,WNW,293,1.0,4.0,45,0.00,,,0.00,Wunderground v.1.15,2013-11-04 16:25:00,
2013-11-04 11:26:00,52.5,32.3,30.54,ENE,70,2.0,4.0,46,0.00,,,0.00,Wunderground v.1.15,2013-11-04 16:26:00,
2013-11-04 11:27:00,52.6,32.4,30.54,ENE,78,3.0,4.0,46,0.00,,,0.00,Wunderground v.1.15,2013-11-04 16:27:00,
2013-11-04 11:28:00,52.7,31.9,30.54,ENE,65,1.0,4.0,45,0.00,,,0.00,Wunderground v.1.15,2013-11-04 16:28:00,
2013-11-04 11:30:00,52.8,32.0,30.54,ENE,77,2.0,2.0,45,0.00,,,0.00,Wunderground v.1.15,2013-11-04 16:30:00,
2013-11-04 11:31:00,52.9,32.1,30.53,ENE,77,1.0,2.0,45,0.00,,,0.00,Wunderground v.1.15,2013-11-04 16:31:00,
2013-11-04 11:32:00,52.9,32.1,30.53,ESE,121,0.0,3.0,45,0.00,,,0.00,Wunderground v.1.15,2013-11-04 16:32:00,
2013-11-04 11:33:00,53.0,31.6,30.53,East,94,0.0,3.0,44,0.00,,,0.00,Wunderground v.1.15,2013-11-04 16:33:00,
2013-11-04 11:36:00,53.1,32.3,30.53,ENE,73,2.0,3.0,45,0.00,,,0.00,Wunderground v.1.15,2013-11-04 16:36:00,
2013-11-04 11:37:00,53.2,31.8,30.52,WNW,297,1.0,5.0,44,0.00,,,0.00,Wunderground v.1.15,2013-11-04 16:37:00,
2013-11-04 11:38:00,53.2,32.4,30.52,ENE,68,1.0,-999.0,45,0.00,,,0.00,Wunderground v.1.15,2013-11-04 16:38:00,
2013-11-04 11:39:00,53.2,31.8,30.52,ENE,72,1.0,5.0,44,0.00,,,0.00,Wunderground v.1.15,2013-11-04 16:39:00,
2013-11-04 11:41:00,53.2,32.4,30.52,SSW,201,1.0,2.0,45,0.00,,,0.00,Wunderground v.1.15,2013-11-04 16:41:00,
2013-11-04 11:42:00,53.2,31.8,30.52,SSW,203,0.0,2.0,44,0.00,,,0.00,Wunderground v.1.15,2013-11-04 16:42:00,
2013-11-04 11:43:00,53.6,32.2,30.52,NE,45,1.0,-999.0,44,0.00,,,0.00,Wunderground v.1.15,2013-11-04 16:43:00,
2013-11-04 11:44:00,53.4,32.6,30.52,NE,36,0.0,2.0,45,0.00,,,0.00,Wunderground v.1.15,2013-11-04 16:44:00,
2013-11-04 11:46:00,53.6,32.2,30.52,NW,312,2.0,2.0,44,0.00,,,0.00,Wunderground v.1.15,2013-11-04 16:46:00,
2013-11-04 11:47:00,53.8,32.9,30.52,NNW,330,1.0,2.0,45,0.00,,,0.00,Wunderground v.1.15,2013-11-04 16:47:00,
2013-11-04 11:48:00,53.9,31.3,30.52,ENE,68,2.0,-999.0,42,0.00,,,0.00,Wunderground v.1.15,2013-11-04 16:48:00,
2013-11-04 11:50:00,54.0,32.6,30.52,NW,305,2.0,2.0,44,0.00,,,0.00,Wunderground v.1.15,2013-11-04 16:50:00,
2013-11-04 11:52:00,53.9,31.9,30.52,NE,34,1.0,4.0,43,0.00,,,0.00,Wunderground v.1.15,2013-11-04 16:52:00,
2013-11-04 11:53:00,53.8,31.8,30.52,West,276,1.0,4.0,43,0.00,,,0.00,Wunderground v.1.15,2013-11-04 16:53:00,
2013-11-04 11:55:00,53.8,31.8,30.52,ENE,72,1.0,4.0,43,0.00,,,0.00,Wunderground v.1.15,2013-11-04 16:55:00,
2013-11-04 11:57:00,53.8,31.8,30.53,NNE,25,2.0,6.0,43,0.00,,,0.00,Wunderground v.1.15,2013-11-04 16:57:00,
2013-11-04 11:58:00,53.8,31.2,30.53,North,6,1.0,6.0,42,0.00,,,0.00,Wunderground v.1.15,2013-11-04 16:58:00,
2013-11-04 12:01:00,53.6,31.0,30.53,ENE,74,0.0,3.0,42,0.00,,,0.00,Wunderground v.1.15,2013-11-04 17:01:00,
2013-11-04 12:02:00,53.5,31.5,30.53,NE,45,2.0,3.0,43,0.00,,,0.00,Wunderground v.1.15,2013-11-04 17:02:00,
2013-11-04 12:03:00,53.5,32.1,30.53,NNE,27,0.0,3.0,44,0.00,,,0.00,Wunderground v.1.15,2013-11-04 17:03:00,
2013-11-04 12:06:00,53.4,31.4,30.52,North,349,1.0,3.0,43,0.00,,,0.00,Wunderground v.1.15,2013-11-04 17:06:00,
2013-11-04 12:07:00,53.5,32.7,30.52,East,87,0.0,3.0,45,0.00,,,0.00,Wunderground v.1.15,2013-11-04 17:07:00,
2013-11-04 12:08:00,53.6,32.2,30.52,NE,46,1.0,3.0,44,0.00,,,0.00,Wunderground v.1.15,2013-11-04 17:08:00,
2013-11-04 12:11:00,53.9,30.7,30.52,NE,39,2.0,4.0,41,0.00,,,0.00,Wunderground v.1.15,2013-11-04 17:11:00,
2013-11-04 12:12:00,54.1,32.1,30.52,NNE,32,2.0,4.0,43,0.00,,,0.00,Wunderground v.1.15,2013-11-04 17:12:00,
2013-11-04 12:13:00,54.1,31.5,30.52,NNE,27,1.0,7.0,42,0.00,,,0.00,Wunderground v.1.15,2013-11-04 17:13:00,
2013-11-04 12:14:00,54.1,31.5,30.52,NNE,27,0.0,7.0,42,0.00,,,0.00,Wunderground v.1.15,2013-11-04 17:14:00,
2013-11-04 12:16:00,54.1,32.1,30.52,SSE,153,1.0,7.0,43,0.00,,,0.00,Wunderground v.1.15,2013-11-04 17:16:00,
2013-11-04 12:17:00,54.1,31.5,30.52,WNW,286,1.0,7.0,42,0.00,,,0.00,Wunderground v.1.15,2013-11-04 17:17:00,
2013-11-04 12:18:00,54.0,31.4,30.52,West,264,1.0,7.0,42,0.00,,,0.00,Wunderground v.1.15,2013-11-04 17:18:00,
2013-11-04 12:19:00,54.0,32.0,30.52,ENE,77,2.0,7.0,43,0.00,,,0.00,Wunderground v.1.15,2013-11-04 17:19:00,
2013-11-04 12:21:00,54.1,32.1,30.52,ENE,70,2.0,3.0,43,0.00,,,0.00,Wunderground v.1.15,2013-11-04 17:21:00,
2013-11-04 12:23:00,54.1,32.6,30.52,SSW,210,1.0,3.0,44,0.00,,,0.00,Wunderground v.1.15,2013-11-04 17:23:00,
2013-11-04 12:24:00,54.2,32.7,30.52,NNE,30,1.0,3.0,44,0.00,,,0.00,Wunderground v.1.15,2013-11-04 17:24:00,
2013-11-04 12:27:00,54.2,32.2,30.52,West,267,1.0,3.0,43,0.00,,,0.00,Wunderground v.1.15,2013-11-04 17:27:00,
2013-11-04 12:28:00,54.3,32.8,30.51,NW,308,2.0,3.0,44,0.00,,,0.00,Wunderground v.1.15,2013-11-04 17:28:00,
2013-11-04 12:29:00,54.3,31.7,30.51,WSW,250,3.0,3.0,42,0.00,,,0.00,Wunderground v.1.15,2013-11-04 17:29:00,
2013-11-04 12:30:00,54.3,31.7,30.51,NE,48,1.0,1.0,42,0.00,,,0.00,Wunderground v.1.15,2013-11-04 17:30:00,
2013-11-04 12:32:00,54.1,31.5,30.51,ENE,70,2.0,4.0,42,0.00,,,0.00,Wunderground v.1.15,2013-11-04 17:32:00,
2013-11-04 12:33:00,54.0,31.4,30.51,NW,325,1.0,4.0,42,0.00,,,0.00,Wunderground v.1.15,2013-11-04 17:33:00,
2013-11-04 12:34:00,53.9,31.9,30.51,NNW,333,2.0,4.0,43,0.00,,,0.00,Wunderground v.1.15,2013-11-04 17:34:00,
2013-11-04 12:35:00,53.7,31.1,30.51,North,349,3.0,4.0,42,0.00,,,0.00,Wunderground v.1.15,2013-11-04 17:35:00,
2013-11-04 12:36:00,53.7,31.1,30.51,WNW,302,1.0,4.0,42,0.00,,,0.00,Wunderground v.1.15,2013-11-04 17:36:00,
2013-11-04 12:37:00,53.5,31.0,30.51,NW,307,0.0,4.0,42,0.00,,,0.00,Wunderground v.1.15,2013-11-04 17:37:00,
2013-11-04 12:38:00,53.4,30.9,30.51,NW,322,0.0,4.0,42,0.00,,,0.00,Wunderground v.1.15,2013-11-04 17:38:00,
2013-11-04 12:39:00,53.4,31.4,30.51,North,4,1.0,4.0,43,0.00,,,0.00,Wunderground v.1.15,2013-11-04 17:39:00,
2013-11-04 12:40:00,53.4,31.4,30.51,NW,311,2.0,4.0,43,0.00,,,0.00,Wunderground v.1.15,2013-11-04 17:40:00,
2013-11-04 12:41:00,53.4,31.4,30.51,WNW,300,2.0,5.0,43,0.00,,,0.00,Wunderground v.1.15,2013-11-04 17:41:00,
2013-11-04 12:42:00,53.5,31.5,30.51,WSW,255,2.0,5.0,43,0.00,,,0.00,Wunderground v.1.15,2013-11-04 17:42:00,
2013-11-04 12:43:00,53.5,31.5,30.51,ENE,68,1.0,-999.0,43,0.00,,,0.00,Wunderground v.1.15,2013-11-04 17:43:00,
2013-11-04 12:44:00,53.5,32.1,30.51,WNW,302,1.0,5.0,44,0.00,,,0.00,Wunderground v.1.15,2013-11-04 17:44:00,
2013-11-04 12:45:00,53.5,32.1,30.51,NE,45,1.0,5.0,44,0.00,,,0.00,Wunderground v.1.15,2013-11-04 17:45:00,
2013-11-04 12:46:00,53.5,31.5,30.51,ENE,59,0.0,5.0,43,0.00,,,0.00,Wunderground v.1.15,2013-11-04 17:46:00,
2013-11-04 12:47:00,53.4,30.9,30.51,ENE,75,2.0,5.0,42,0.00,,,0.00,Wunderground v.1.15,2013-11-04 17:47:00,
2013-11-04 12:48:00,53.6,32.2,30.50,ENE,68,2.0,-999.0,44,0.00,,,0.00,Wunderground v.1.15,2013-11-04 17:48:00,
2013-11-04 12:49:00,53.5,31.5,30.50,North,8,2.0,5.0,43,0.00,,,0.00,Wunderground v.1.15,2013-11-04 17:49:00,
2013-11-04 12:50:00,53.5,32.1,30.50,ENE,61,1.0,2.0,44,0.00,,,0.00,Wunderground v.1.15,2013-11-04 17:50:00,
2013-11-04 12:51:00,53.6,32.2,30.50,North,357,2.0,2.0,44,0.00,,,0.00,Wunderground v.1.15,2013-11-04 17:51:00,
2013-11-04 12:52:00,53.9,31.9,30.50,East,80,1.0,7.0,43,0.00,,,0.00,Wunderground v.1.15,2013-11-04 17:52:00,
2013-11-04 12:53:00,54.4,31.8,30.50,NE,45,2.0,-999.0,42,0.00,,,0.00,Wunderground v.1.15,2013-11-04 17:53:00,
2013-11-04 12:54:00,54.1,31.5,30.50,NNE,15,2.0,7.0,42,0.00,,,0.00,Wunderground v.1.15,2013-11-04 17:54:00,
2013-11-04 12:55:00,54.3,32.3,30.50,WNW,298,1.0,7.0,43,0.00,,,0.00,Wunderground v.1.15,2013-11-04 17:55:00,
2013-11-04 12:56:00,54.4,31.8,30.50,East,81,1.0,7.0,42,0.00,,,0.00,Wunderground v.1.15,2013-11-04 17:56:00,
2013-11-04 12:57:00,54.4,31.8,30.50,NNW,336,2.0,7.0,42,0.00,,,0.00,Wunderground v.1.15,2013-11-04 17:57:00,
2013-11-04 12:58:00,54.4,31.8,30.50,NNW,338,1.0,-999.0,42,0.00,,,0.00,Wunderground v.1.15,2013-11-04 17:58:00,
2013-11-04 12:59:00,54.4,31.8,30.50,ENE,73,1.0,7.0,42,0.00,,,0.00,Wunderground v.1.15,2013-11-04 17:59:00,
2013-11-04 13:01:00,54.4,31.8,30.50,NW,308,0.0,1.0,42,0.00,,,0.00,Wunderground v.1.15,2013-11-04 18:01:00,
2013-11-04 13:02:00,54.4,32.3,30.50,NW,308,0.0,1.0,43,0.00,,,0.00,Wunderground v.1.15,2013-11-04 18:02:00,
2013-11-04 13:03:00,54.7,33.2,30.50,ENE,68,0.0,-999.0,44,0.00,,,0.00,Wunderground v.1.15,2013-11-04 18:03:00,
2013-11-04 13:05:00,54.6,31.9,30.50,NW,319,0.0,1.0,42,0.00,,,0.00,Wunderground v.1.15,2013-11-04 18:05:00,
2013-11-04 13:06:00,54.7,33.2,30.49,ENE,58,2.0,2.0,44,0.00,,,0.00,Wunderground v.1.15,2013-11-04 18:06:00,
2013-11-04 13:07:00,54.8,33.3,30.49,North,9,2.0,3.0,44,0.00,,,0.00,Wunderground v.1.15,2013-11-04 18:07:00,
2013-11-04 13:08:00,55.0,32.3,30.49,ENE,73,0.0,3.0,42,0.00,,,0.00,Wunderground v.1.15,2013-11-04 18:08:00,
2013-11-04 13:10:00,55.1,32.4,30.49,South,188,0.0,1.0,42,0.00,,,0.00,Wunderground v.1.15,2013-11-04 18:10:00,
2013-11-04 13:11:00,55.1,32.4,30.49,South,188,0.0,1.0,42,0.00,,,0.00,Wunderground v.1.15,2013-11-04 18:11:00,
2013-11-04 13:12:00,55.2,32.5,30.49,East,82,1.0,1.0,42,0.00,,,0.00,Wunderground v.1.15,2013-11-04 18:12:00,
2013-11-04 13:13:00,55.2,32.5,30.49,East,83,4.0,5.0,42,0.00,,,0.00,Wunderground v.1.15,2013-11-04 18:13:00,
2013-11-04 13:15:00,55.1,31.8,30.49,NNE,33,2.0,5.0,41,0.00,,,0.00,Wunderground v.1.15,2013-11-04 18:15:00,
2013-11-04 13:16:00,55.1,31.8,30.50,NW,310,3.0,7.0,41,0.00,,,0.00,Wunderground v.1.15,2013-11-04 18:16:00,
2013-11-04 13:17:00,55.0,32.3,30.50,NNE,17,0.0,7.0,42,0.00,,,0.00,Wunderground v.1.15,2013-11-04 18:17:00,
2013-11-04 13:18:00,55.0,31.1,30.50,NW,315,2.0,-999.0,40,0.00,,,0.00,Wunderground v.1.15,2013-11-04 18:18:00,
2013-11-04 13:19:00,55.1,32.4,30.50,WNW,293,1.0,7.0,42,0.00,,,0.00,Wunderground v.1.15,2013-11-04 18:19:00,
2013-11-04 13:20:00,55.1,31.8,30.50,WNW,282,2.0,4.0,41,0.00,,,0.00,Wunderground v.1.15,2013-11-04 18:20:00,
2013-11-04 13:22:00,55.0,32.3,30.50,NE,44,1.0,4.0,42,0.00,,,0.00,Wunderground v.1.15,2013-11-04 18:22:00,
2013-11-04 13:23:00,55.0,31.7,30.50,ENE,68,1.0,-999.0,41,0.00,,,0.00,Wunderground v.1.15,2013-11-04 18:23:00,
2013-11-04 13:24:00,55.1,31.8,30.50,ENE,77,2.0,4.0,41,0.00,,,0.00,Wunderground v.1.15,2013-11-04 18:24:00,
2013-11-04 13:25:00,55.1,31.2,30.50,ENE,58,2.0,4.0,40,0.00,,,0.00,Wunderground v.1.15,2013-11-04 18:25:00,
2013-11-04 13:27:00,55.0,32.3,30.50,ENE,75,1.0,4.0,42,0.00,,,0.00,Wunderground v.1.15,2013-11-04 18:27:00,
2013-11-04 13:28:00,55.0,31.7,30.50,ENE,68,2.0,-999.0,41,0.00,,,0.00,Wunderground v.1.15,2013-11-04 18:28:00,
2013-11-04 13:29:00,54.9,32.8,30.50,North,8,3.0,4.0,43,0.00,,,0.00,Wunderground v.1.15,2013-11-04 18:29:00,
2013-11-04 13:30:00,55.0,32.9,30.50,NNE,17,3.0,3.0,43,0.00,,,0.00,Wunderground v.1.15,2013-11-04 18:30:00,
2013-11-04 13:31:00,55.0,31.7,30.50,North,354,3.0,4.0,41,0.00,,,0.00,Wunderground v.1.15,2013-11-04 18:31:00,
2013-11-04 13:32:00,54.9,31.0,30.50,NW,324,1.0,4.0,40,0.00,,,0.00,Wunderground v.1.15,2013-11-04 18:32:00,
2013-11-04 13:33:00,54.8,30.9,30.50,WNW,290,0.0,4.0,40,0.00,,,0.00,Wunderground v.1.15,2013-11-04 18:33:00,
2013-11-04 13:34:00,54.8,31.5,30.50,NW,322,0.0,4.0,41,0.00,,,0.00,Wunderground v.1.15,2013-11-04 18:34:00,
2013-11-04 13:35:00,54.8,31.5,30.50,WNW,297,0.0,4.0,41,0.00,,,0.00,Wunderground v.1.15,2013-11-04 18:35:00,
2013-11-04 13:36:00,54.7,32.0,30.50,WNW,283,0.0,4.0,42,0.00,,,0.00,Wunderground v.1.15,2013-11-04 18:36:00,
2013-11-04 13:37:00,54.7,32.0,30.50,NW,322,0.0,4.0,42,0.00,,,0.00,Wunderground v.1.15,2013-11-04 18:37:00,
2013-11-04 13:38:00,54.8,32.1,30.50,North,358,1.0,4.0,42,0.00,,,0.00,Wunderground v.1.15,2013-11-04 18:38:00,
2013-11-04 13:40:00,54.9,32.8,30.50,NW,319,2.0,4.0,43,0.00,,,0.00,Wunderground v.1.15,2013-11-04 18:40:00,
2013-11-04 13:41:00,54.9,32.8,30.50,NW,325,2.0,3.0,43,0.00,,,0.00,Wunderground v.1.15,2013-11-04 18:41:00,
2013-11-04 13:42:00,54.9,31.6,30.49,West,276,1.0,3.0,41,0.00,,,0.00,Wunderground v.1.15,2013-11-04 18:42:00,
2013-11-04 13:43:00,54.8,32.1,30.49,East,83,2.0,3.0,42,0.00,,,0.00,Wunderground v.1.15,2013-11-04 18:43:00,
2013-11-04 13:44:00,54.8,32.1,30.49,East,82,2.0,3.0,42,0.00,,,0.00,Wunderground v.1.15,2013-11-04 18:44:00,
2013-11-04 13:45:00,54.8,32.1,30.49,East,82,0.0,3.0,42,0.00,,,0.00,Wunderground v.1.15,2013-11-04 18:45:00,
2013-11-04 13:46:00,54.8,32.7,30.49,East,96,0.0,3.0,43,0.00,,,0.00,Wunderground v.1.15,2013-11-04 18:46:00,
2013-11-04 13:47:00,54.7,32.0,30.49,WSW,245,1.0,3.0,42,0.00,,,0.00,Wunderground v.1.15,2013-11-04 18:47:00,
2013-11-04 13:48:00,54.7,31.4,30.49,SW,235,1.0,3.0,41,0.00,,,0.00,Wunderground v.1.15,2013-11-04 18:48:00,
2013-11-04 13:49:00,54.7,31.4,30.49,WNW,284,1.0,3.0,41,0.00,,,0.00,Wunderground v.1.15,2013-11-04 18:49:00,
2013-11-04 13:50:00,54.7,32.6,30.49,NNW,330,0.0,1.0,43,0.00,,,0.00,Wunderground v.1.15,2013-11-04 18:50:00,
2013-11-04 13:51:00,54.7,32.6,30.49,NNW,330,0.0,1.0,43,0.00,,,0.00,Wunderground v.1.15,2013-11-04 18:51:00,
2013-11-04 13:53:00,54.9,33.4,30.50,NNE,21,0.0,1.0,44,0.00,,,0.00,Wunderground v.1.15,2013-11-04 18:53:00,
2013-11-04 13:55:00,54.9,32.2,30.50,West,274,0.0,1.0,42,0.00,,,0.00,Wunderground v.1.15,2013-11-04 18:55:00,
2013-11-04 13:56:00,55.0,32.9,30.50,NE,35,0.0,3.0,43,0.00,,,0.00,Wunderground v.1.15,2013-11-04 18:56:00,
2013-11-04 13:58:00,55.1,33.0,30.49,ENE,66,2.0,3.0,43,0.00,,,0.00,Wunderground v.1.15,2013-11-04 18:58:00,
2013-11-04 14:00:00,55.1,32.4,30.49,ENE,72,1.0,1.0,42,0.00,,,0.00,Wunderground v.1.15,2013-11-04 19:00:00,
2013-11-04 14:01:00,55.1,33.0,30.49,NW,308,1.0,3.0,43,0.00,,,0.00,Wunderground v.1.15,2013-11-04 19:01:00,
2013-11-04 14:02:00,55.1,33.0,30.49,NW,308,1.0,3.0,43,0.00,,,0.00,Wunderground v.1.15,2013-11-04 19:02:00,
2013-11-04 14:03:00,55.1,32.4,30.49,WNW,300,2.0,5.0,42,0.00,,,0.00,Wunderground v.1.15,2013-11-04 19:03:00,
2013-11-04 14:04:00,55.1,33.0,30.49,ENE,70,1.0,5.0,43,0.00,,,0.00,Wunderground v.1.15,2013-11-04 19:04:00,
2013-11-04 14:05:00,55.0,32.9,30.49,East,82,0.0,5.0,43,0.00,,,0.00,Wunderground v.1.15,2013-11-04 19:05:00,
2013-11-04 14:06:00,55.0,32.9,30.49,East,82,0.0,5.0,43,0.00,,,0.00,Wunderground v.1.15,2013-11-04 19:06:00,
2013-11-04 14:07:00,55.0,32.9,30.49,East,82,0.0,5.0,43,0.00,,,0.00,Wunderground v.1.15,2013-11-04 19:07:00,
2013-11-04 14:08:00,55.1,34.1,30.49,WSW,248,0.0,-999.0,45,0.00,,,0.00,Wunderground v.1.15,2013-11-04 19:08:00,
2013-11-04 14:09:00,55.1,34.7,30.49,East,82,1.0,5.0,46,0.00,,,0.00,Wunderground v.1.15,2013-11-04 19:09:00,
2013-11-04 14:10:00,55.1,34.7,30.49,WSW,256,1.0,1.0,46,0.00,,,0.00,Wunderground v.1.15,2013-11-04 19:10:00,
2013-11-04 14:11:00,55.1,33.0,30.49,WSW,256,1.0,1.0,43,0.00,,,0.00,Wunderground v.1.15,2013-11-04 19:11:00,
2013-11-04 14:12:00,55.1,33.0,30.49,WSW,256,1.0,1.0,43,0.00,,,0.00,Wunderground v.1.15,2013-11-04 19:12:00,
2013-11-04 14:13:00,55.2,33.1,30.49,West,259,0.0,1.0,43,0.00,,,0.00,Wunderground v.1.15,2013-11-04 19:13:00,
2013-11-04 14:14:00,55.2,33.1,30.49,West,276,0.0,1.0,43,0.00,,,0.00,Wunderground v.1.15,2013-11-04 19:14:00,
2013-11-04 14:15:00,55.2,33.1,30.49,NNE,28,2.0,2.0,43,0.00,,,0.00,Wunderground v.1.15,2013-11-04 19:15:00,
2013-11-04 14:17:00,55.3,33.2,30.49,NNE,17,0.0,2.0,43,0.00,,,0.00,Wunderground v.1.15,2013-11-04 19:17:00,
2013-11-04 14:18:00,55.3,32.6,30.49,NNE,18,1.0,2.0,42,0.00,,,0.00,Wunderground v.1.15,2013-11-04 19:18:00,
2013-11-04 14:19:00,55.3,33.2,30.49,East,82,0.0,2.0,43,0.00,,,0.00,Wunderground v.1.15,2013-11-04 19:19:00,
2013-11-04 14:20:00,55.3,33.2,30.49,East,82,0.0,1.0,43,0.00,,,0.00,Wunderground v.1.15,2013-11-04 19:20:00,
2013-11-04 14:21:00,55.3,32.6,30.49,East,82,0.0,2.0,42,0.00,,,0.00,Wunderground v.1.15,2013-11-04 19:21:00,
2013-11-04 14:22:00,55.3,32.6,30.49,ENE,61,1.0,2.0,42,0.00,,,0.00,Wunderground v.1.15,2013-11-04 19:22:00,
2013-11-04 14:23:00,55.2,33.1,30.49,NNW,338,1.0,-999.0,43,0.00,,,0.00,Wunderground v.1.15,2013-11-04 19:23:00,
2013-11-04 14:24:00,55.2,32.5,30.49,NW,315,0.0,3.0,42,0.00,,,0.00,Wunderground v.1.15,2013-11-04 19:24:00,
2013-11-04 14:25:00,55.2,33.6,30.49,NW,307,1.0,3.0,44,0.00,,,0.00,Wunderground v.1.15,2013-11-04 19:25:00,
2013-11-04 14:26:00,55.2,33.1,30.49,NW,309,1.0,3.0,43,0.00,,,0.00,Wunderground v.1.15,2013-11-04 19:26:00,
2013-11-04 14:27:00,55.3,33.7,30.49,NE,55,1.0,3.0,44,0.00,,,0.00,Wunderground v.1.15,2013-11-04 19:27:00,
2013-11-04 14:28:00,55.3,33.2,30.49,NNE,33,1.0,3.0,43,0.00,,,0.00,Wunderground v.1.15,2013-11-04 19:28:00,
2013-11-04 14:29:00,55.3,33.2,30.49,NE,39,0.0,3.0,43,0.00,,,0.00,Wunderground v.1.15,2013-11-04 19:29:00,
2013-11-04 14:30:00,55.3,32.6,30.49,ENE,73,2.0,3.0,42,0.00,,,0.00,Wunderground v.1.15,2013-11-04 19:30:00,
2013-11-04 14:31:00,55.2,31.9,30.49,East,80,0.0,3.0,41,0.00,,,0.00,Wunderground v.1.15,2013-11-04 19:31:00,
2013-11-04 14:32:00,55.2,33.1,30.49,NE,50,1.0,3.0,43,0.00,,,0.00,Wunderground v.1.15,2013-11-04 19:32:00,
2013-11-04 14:33:00,55.3,33.2,30.49,NE,51,0.0,3.0,43,0.00,,,0.00,Wunderground v.1.15,2013-11-04 19:33:00,
2013-11-04 14:34:00,55.3,32.6,30.49,SE,136,1.0,3.0,42,0.00,,,0.00,Wunderground v.1.15,2013-11-04 19:34:00,
2013-11-04 14:35:00,55.4,33.3,30.49,West,278,0.0,3.0,43,0.00,,,0.00,Wunderground v.1.15,2013-11-04 19:35:00,
2013-11-04 14:36:00,55.4,32.7,30.49,WNW,301,2.0,3.0,42,0.00,,,0.00,Wunderground v.1.15,2013-11-04 19:36:00,
2013-11-04 14:38:00,55.5,33.3,30.49,WNW,285,1.0,5.0,43,0.00,,,0.00,Wunderground v.1.15,2013-11-04 19:38:00,
2013-11-04 14:39:00,55.6,32.8,30.49,NW,306,1.0,5.0,42,0.00,,,0.00,Wunderground v.1.15,2013-11-04 19:39:00,
2013-11-04 14:40:00,55.7,32.3,30.49,WNW,302,2.0,2.0,41,0.00,,,0.00,Wunderground v.1.15,2013-11-04 19:40:00,
2013-11-04 14:41:00,55.7,32.9,30.49,North,9,2.0,2.0,42,0.00,,,0.00,Wunderground v.1.15,2013-11-04 19:41:00,
2013-11-04 14:43:00,55.7,32.9,30.49,NW,322,1.0,2.0,42,0.00,,,0.00,Wunderground v.1.15,2013-11-04 19:43:00,
2013-11-04 14:44:00,55.7,32.9,30.49,ENE,73,2.0,2.0,42,0.00,,,0.00,Wunderground v.1.15,2013-11-04 19:44:00,
2013-11-04 14:45:00,55.7,32.9,30.49,WNW,297,2.0,3.0,42,0.00,,,0.00,Wunderground v.1.15,2013-11-04 19:45:00,
2013-11-04 14:46:00,55.7,32.3,30.49,ENE,65,2.0,3.0,41,0.00,,,0.00,Wunderground v.1.15,2013-11-04 19:46:00,
2013-11-04 14:48:00,55.6,32.8,30.49,NE,44,2.0,4.0,42,0.00,,,0.00,Wunderground v.1.15,2013-11-04 19:48:00,
2013-11-04 14:49:00,55.5,32.8,30.49,ENE,61,1.0,4.0,42,0.00,,,0.00,Wunderground v.1.15,2013-11-04 19:49:00,
2013-11-04 14:50:00,55.5,32.8,30.49,NE,48,1.0,1.0,42,0.00,,,0.00,Wunderground v.1.15,2013-11-04 19:50:00,
2013-11-04 14:51:00,55.2,32.5,30.49,North,356,1.0,4.0,42,0.00,,,0.00,Wunderground v.1.15,2013-11-04 19:51:00,
2013-11-04 14:52:00,55.2,32.5,30.49,North,355,1.0,4.0,42,0.00,,,0.00,Wunderground v.1.15,2013-11-04 19:52:00,
2013-11-04 14:53:00,55.1,32.4,30.49,WNW,297,0.0,4.0,42,0.00,,,0.00,Wunderground v.1.15,2013-11-04 19:53:00,
2013-11-04 14:54:00,54.9,32.2,30.49,NW,304,1.0,4.0,42,0.00,,,0.00,Wunderground v.1.15,2013-11-04 19:54:00,
2013-11-04 14:55:00,54.8,32.7,30.49,NE,35,1.0,4.0,43,0.00,,,0.00,Wunderground v.1.15,2013-11-04 19:55:00,
2013-11-04 14:56:00,54.7,33.2,30.49,East,82,1.0,4.0,44,0.00,,,0.00,Wunderground v.1.15,2013-11-04 19:56:00,
2013-11-04 14:57:00,54.7,33.2,30.49,East,82,1.0,4.0,44,0.00,,,0.00,Wunderground v.1.15,2013-11-04 19:57:00,
2013-11-04 14:58:00,54.5,32.4,30.49,East,82,1.0,4.0,43,0.00,,,0.00,Wunderground v.1.15,2013-11-04 19:58:00,
2013-11-04 14:59:00,54.5,33.0,30.49,SE,146,0.0,4.0,44,0.00,,,0.00,Wunderground v.1.15,2013-11-04 19:59:00,
2013-11-04 15:00:00,54.5,33.0,30.49,SE,145,0.0,1.0,44,0.00,,,0.00,Wunderground v.1.15,2013-11-04 20:00:00,
2013-11-04 15:02:00,54.5,33.0,30.49,SE,132,1.0,2.0,44,0.00,,,0.00,Wunderground v.1.15,2013-11-04 20:02:00,
2013-11-04 15:03:00,54.5,32.4,30.49,ESE,102,1.0,2.0,43,0.00,,,0.00,Wunderground v.1.15,2013-11-04 20:03:00,
2013-11-04 15:05:00,54.5,33.0,30.49,SE,129,1.0,2.0,44,0.00,,,0.00,Wunderground v.1.15,2013-11-04 20:05:00,
2013-11-04 15:07:00,54.5,33.0,30.49,SE,128,0.0,2.0,44,0.00,,,0.00,Wunderground v.1.15,2013-11-04 20:07:00,
2013-11-04 15:08:00,54.5,33.0,30.49,WNW,297,2.0,2.0,44,0.00,,,0.00,Wunderground v.1.15,2013-11-04 20:08:00,
2013-11-04 15:09:00,54.5,33.0,30.49,WNW,301,2.0,4.0,44,0.00,,,0.00,Wunderground v.1.15,2013-11-04 20:09:00,
2013-11-04 15:10:00,54.6,33.1,30.48,NNE,16,1.0,1.0,44,0.00,,,0.00,Wunderground v.1.15,2013-11-04 20:10:00,
2013-11-04 15:12:00,54.7,33.2,30.49,West,278,1.0,1.0,44,0.00,,,0.00,Wunderground v.1.15,2013-11-04 20:12:00,
2013-11-04 15:13:00,54.7,33.2,30.49,West,274,2.0,2.0,44,0.00,,,0.00,Wunderground v.1.15,2013-11-04 20:13:00,
2013-11-04 15:14:00,54.7,33.8,30.49,NW,309,0.0,2.0,45,0.00,,,0.00,Wunderground v.1.15,2013-11-04 20:14:00,
2013-11-04 15:15:00,54.8,33.8,30.49,NE,54,1.0,2.0,45,0.00,,,0.00,Wunderground v.1.15,2013-11-04 20:15:00,
2013-11-04 15:16:00,54.8,33.8,30.49,NW,316,1.0,2.0,45,0.00,,,0.00,Wunderground v.1.15,2013-11-04 20:16:00,
2013-11-04 15:17:00,54.9,33.4,30.49,ENE,72,0.0,2.0,44,0.00,,,0.00,Wunderground v.1.15,2013-11-04 20:17:00,
2013-11-04 15:18:00,55.0,34.0,30.49,ENE,72,0.0,2.0,45,0.00,,,0.00,Wunderground v.1.15,2013-11-04 20:18:00,
2013-11-04 15:19:00,55.0,34.0,30.49,East,86,1.0,2.0,45,0.00,,,0.00,Wunderground v.1.15,2013-11-04 20:19:00,
2013-11-04 15:20:00,55.0,34.0,30.49,East,98,0.0,1.0,45,0.00,,,0.00,Wunderground v.1.15,2013-11-04 20:20:00,
2013-11-04 15:21:00,55.1,33.6,30.49,East,97,0.0,1.0,44,0.00,,,0.00,Wunderground v.1.15,2013-11-04 20:21:00,
2013-11-04 15:22:00,55.3,34.3,30.48,East,98,0.0,1.0,45,0.00,,,0.00,Wunderground v.1.15,2013-11-04 20:22:00,
2013-11-04 15:23:00,55.8,34.8,30.49,N/A,-737280,0.0,-999.0,45,0.00,,,0.00,Wunderground v.1.15,2013-11-04 20:23:00,
2013-11-04 15:24:00,55.6,34.0,30.48,NW,325,0.0,1.0,44,0.00,,,0.00,Wunderground v.1.15,2013-11-04 20:24:00,
2013-11-04 15:25:00,55.8,34.2,30.49,NE,56,0.0,1.0,44,0.00,,,0.00,Wunderground v.1.15,2013-11-04 20:25:00,
2013-11-04 15:26:00,55.8,34.8,30.49,NE,55,0.0,1.0,45,0.00,,,0.00,Wunderground v.1.15,2013-11-04 20:26:00,
2013-11-04 15:27:00,55.9,33.7,30.48,WNW,291,1.0,1.0,43,0.00,,,0.00,Wunderground v.1.15,2013-11-04 20:27:00,
2013-11-04 15:28:00,56.0,33.8,30.48,WNW,293,1.0,-999.0,43,0.00,,,0.00,Wunderground v.1.15,2013-11-04 20:28:00,
2013-11-04 15:29:00,56.0,33.8,30.48,WNW,297,1.0,2.0,43,0.00,,,0.00,Wunderground v.1.15,2013-11-04 20:29:00,
2013-11-04 15:30:00,55.9,33.7,30.48,ENE,58,0.0,1.0,43,0.00,,,0.00,Wunderground v.1.15,2013-11-04 20:30:00,
2013-11-04 15:31:00,55.9,33.7,30.48,ENE,58,1.0,1.0,43,0.00,,,0.00,Wunderground v.1.15,2013-11-04 20:31:00,
2013-11-04 15:33:00,56.0,34.4,30.48,ENE,58,0.0,1.0,44,0.00,,,0.00,Wunderground v.1.15,2013-11-04 20:33:00,
2013-11-04 15:34:00,56.1,34.5,30.49,WNW,298,2.0,2.0,44,0.00,,,0.00,Wunderground v.1.15,2013-11-04 20:34:00,
2013-11-04 15:35:00,56.0,33.2,30.49,North,10,2.0,2.0,42,0.00,,,0.00,Wunderground v.1.15,2013-11-04 20:35:00,
2013-11-04 15:36:00,56.0,33.2,30.49,NNE,33,1.0,2.0,42,0.00,,,0.00,Wunderground v.1.15,2013-11-04 20:36:00,
2013-11-04 15:38:00,55.9,32.5,30.48,WNW,290,2.0,2.0,41,0.00,,,0.00,Wunderground v.1.15,2013-11-04 20:38:00,
2013-11-04 15:39:00,55.8,33.6,30.48,East,94,1.0,3.0,43,0.00,,,0.00,Wunderground v.1.15,2013-11-04 20:39:00,
2013-11-04 15:40:00,55.7,34.1,30.48,ENE,72,0.0,3.0,44,0.00,,,0.00,Wunderground v.1.15,2013-11-04 20:40:00,
2013-11-04 15:41:00,55.7,34.1,30.48,ENE,72,1.0,3.0,44,0.00,,,0.00,Wunderground v.1.15,2013-11-04 20:41:00,
2013-11-04 15:43:00,55.6,34.0,30.48,ENE,74,1.0,3.0,44,0.00,,,0.00,Wunderground v.1.15,2013-11-04 20:43:00,
2013-11-04 15:44:00,55.5,33.9,30.48,South,174,1.0,3.0,44,0.00,,,0.00,Wunderground v.1.15,2013-11-04 20:44:00,
2013-11-04 15:45:00,55.5,33.3,30.48,South,174,0.0,3.0,43,0.00,,,0.00,Wunderground v.1.15,2013-11-04 20:45:00,
2013-11-04 15:46:00,55.5,33.3,30.48,South,173,0.0,3.0,43,0.00,,,0.00,Wunderground v.1.15,2013-11-04 20:46:00,
2013-11-04 15:48:00,55.6,34.0,30.48,SSW,203,0.0,-999.0,44,0.00,,,0.00,Wunderground v.1.15,2013-11-04 20:48:00,
2013-11-04 15:49:00,55.6,33.4,30.48,SSW,207,1.0,3.0,43,0.00,,,0.00,Wunderground v.1.15,2013-11-04 20:49:00,
2013-11-04 15:50:00,55.6,33.4,30.48,SSW,205,0.0,1.0,43,0.00,,,0.00,Wunderground v.1.15,2013-11-04 20:50:00,
2013-11-04 15:51:00,55.5,33.9,30.49,SSW,205,0.0,1.0,44,0.00,,,0.00,Wunderground v.1.15,2013-11-04 20:51:00,
2013-11-04 15:52:00,55.5,34.5,30.49,SSW,206,0.0,1.0,45,0.00,,,0.00,Wunderground v.1.15,2013-11-04 20:52:00,
2013-11-04 15:53:00,55.3,33.2,30.49,WNW,293,1.0,-999.0,43,0.00,,,0.00,Wunderground v.1.15,2013-11-04 20:53:00,
2013-11-04 15:54:00,55.4,34.4,30.49,WNW,299,1.0,3.0,45,0.00,,,0.00,Wunderground v.1.15,2013-11-04 20:54:00,
2013-11-04 15:56:00,55.3,33.2,30.49,WNW,302,0.0,3.0,43,0.00,,,0.00,Wunderground v.1.15,2013-11-04 20:56:00,
2013-11-04 15:57:00,55.2,33.1,30.49,NNW,335,1.0,3.0,43,0.00,,,0.00,Wunderground v.1.15,2013-11-04 20:57:00,
2013-11-04 15:58:00,55.2,34.2,30.49,NE,45,0.0,-999.0,45,0.00,,,0.00,Wunderground v.1.15,2013-11-04 20:58:00,
2013-11-04 15:59:00,55.2,34.2,30.49,NNW,335,0.0,3.0,45,0.00,,,0.00,Wunderground v.1.15,2013-11-04 20:59:00,
2013-11-04 16:01:00,55.1,34.1,30.49,NE,43,1.0,2.0,45,0.00,,,0.00,Wunderground v.1.15,2013-11-04 21:01:00,
2013-11-04 16:02:00,55.1,34.1,30.49,NE,42,1.0,2.0,45,0.00,,,0.00,Wunderground v.1.15,2013-11-04 21:02:00,
2013-11-04 16:03:00,54.8,36.0,30.49,NE,45,0.0,-999.0,49,0.00,,,0.00,Wunderground v.1.15,2013-11-04 21:03:00,
2013-11-04 16:04:00,54.9,34.5,30.49,NE,43,0.0,2.0,46,0.00,,,0.00,Wunderground v.1.15,2013-11-04 21:04:00,
2013-11-04 16:06:00,54.7,34.8,30.49,NE,43,0.0,2.0,47,0.00,,,0.00,Wunderground v.1.15,2013-11-04 21:06:00,
2013-11-04 16:07:00,54.7,34.8,30.49,NE,43,0.0,2.0,47,0.00,,,0.00,Wunderground v.1.15,2013-11-04 21:07:00,
2013-11-04 16:08:00,54.7,34.3,30.49,NE,43,0.0,2.0,46,0.00,,,0.00,Wunderground v.1.15,2013-11-04 21:08:00,
2013-11-04 16:10:00,54.6,34.8,30.49,NE,43,0.0,0.0,47,0.00,,,0.00,Wunderground v.1.15,2013-11-04 21:10:00,
2013-11-04 16:11:00,54.6,35.3,30.49,NE,43,0.0,1.0,48,0.00,,,0.00,Wunderground v.1.15,2013-11-04 21:11:00,
2013-11-04 16:12:00,54.6,35.8,30.49,NE,43,0.0,1.0,49,0.00,,,0.00,Wunderground v.1.15,2013-11-04 21:12:00,
2013-11-04 16:13:00,54.5,35.7,30.49,NE,43,0.0,1.0,49,0.00,,,0.00,Wunderground v.1.15,2013-11-04 21:13:00,
2013-11-04 16:14:00,54.5,35.7,30.49,NE,43,0.0,1.0,49,0.00,,,0.00,Wunderground v.1.15,2013-11-04 21:14:00,
2013-11-04 16:16:00,54.4,34.6,30.49,NE,43,0.0,1.0,47,0.00,,,0.00,Wunderground v.1.15,2013-11-04 21:16:00,
2013-11-04 16:17:00,54.3,34.5,30.49,NE,42,1.0,1.0,47,0.00,,,0.00,Wunderground v.1.15,2013-11-04 21:17:00,
2013-11-04 16:18:00,54.3,34.5,30.49,NE,42,0.0,1.0,47,0.00,,,0.00,Wunderground v.1.15,2013-11-04 21:18:00,
2013-11-04 16:19:00,54.2,34.4,30.49,NE,43,0.0,1.0,47,0.00,,,0.00,Wunderground v.1.15,2013-11-04 21:19:00,
2013-11-04 16:20:00,54.2,34.4,30.49,NE,42,0.0,0.0,47,0.00,,,0.00,Wunderground v.1.15,2013-11-04 21:20:00,
2013-11-04 16:21:00,54.3,34.5,30.49,SSE,160,0.0,0.0,47,0.00,,,0.00,Wunderground v.1.15,2013-11-04 21:21:00,
2013-11-04 16:22:00,54.3,33.4,30.49,SSE,159,0.0,0.0,45,0.00,,,0.00,Wunderground v.1.15,2013-11-04 21:22:00,
2013-11-04 16:23:00,54.4,34.0,30.49,NNW,333,2.0,2.0,46,0.00,,,0.00,Wunderground v.1.15,2013-11-04 21:23:00,
2013-11-04 16:24:00,54.5,34.7,30.49,North,353,0.0,2.0,47,0.00,,,0.00,Wunderground v.1.15,2013-11-04 21:24:00,
2013-11-04 16:25:00,54.5,34.7,30.49,NW,311,1.0,2.0,47,0.00,,,0.00,Wunderground v.1.15,2013-11-04 21:25:00,
2013-11-04 16:26:00,54.6,34.8,30.49,NW,310,0.0,2.0,47,0.00,,,0.00,Wunderground v.1.15,2013-11-04 21:26:00,
2013-11-04 16:27:00,54.6,35.8,30.49,NW,310,0.0,2.0,49,0.00,,,0.00,Wunderground v.1.15,2013-11-04 21:27:00,
2013-11-04 16:28:00,54.6,34.8,30.49,NW,310,0.0,2.0,47,0.00,,,0.00,Wunderground v.1.15,2013-11-04 21:28:00,
2013-11-04 16:29:00,54.6,34.2,30.49,NW,309,0.0,2.0,46,0.00,,,0.00,Wunderground v.1.15,2013-11-04 21:29:00,
2013-11-04 16:30:00,54.6,34.2,30.49,NW,309,0.0,0.0,46,0.00,,,0.00,Wunderground v.1.15,2013-11-04 21:30:00,
2013-11-04 16:32:00,54.7,34.8,30.48,NW,309,0.0,0.0,47,0.00,,,0.00,Wunderground v.1.15,2013-11-04 21:32:00,
2013-11-04 16:33:00,54.7,35.4,30.48,NE,53,1.0,1.0,48,0.00,,,0.00,Wunderground v.1.15,2013-11-04 21:33:00,
2013-11-04 16:34:00,54.6,35.8,30.48,NE,53,0.0,1.0,49,0.00,,,0.00,Wunderground v.1.15,2013-11-04 21:34:00,
2013-11-04 16:36:00,54.5,35.2,30.48,NE,53,0.0,1.0,48,0.00,,,0.00,Wunderground v.1.15,2013-11-04 21:36:00,
2013-11-04 16:37:00,54.4,36.1,30.48,NE,53,0.0,1.0,50,0.00,,,0.00,Wunderground v.1.15,2013-11-04 21:37:00,
2013-11-04 16:38:00,54.3,36.0,30.48,NE,53,0.0,1.0,50,0.00,,,0.00,Wunderground v.1.15,2013-11-04 21:38:00,
2013-11-04 16:39:00,54.3,36.0,30.48,NE,53,0.0,1.0,50,0.00,,,0.00,Wunderground v.1.15,2013-11-04 21:39:00,
2013-11-04 16:41:00,54.2,35.4,30.48,NE,52,0.0,1.0,49,0.00,,,0.00,Wunderground v.1.15,2013-11-04 21:41:00,
2013-11-04 16:42:00,54.1,36.4,30.48,NE,53,0.0,1.0,51,0.00,,,0.00,Wunderground v.1.15,2013-11-04 21:42:00,
2013-11-04 16:43:00,54.0,35.8,30.48,NE,53,0.0,1.0,50,0.00,,,0.00,Wunderground v.1.15,2013-11-04 21:43:00,
2013-11-04 16:45:00,53.7,36.0,30.48,NE,53,0.0,1.0,51,0.00,,,0.00,Wunderground v.1.15,2013-11-04 21:45:00,
2013-11-04 16:46:00,53.6,35.9,30.48,NE,53,0.0,1.0,51,0.00,,,0.00,Wunderground v.1.15,2013-11-04 21:46:00,
2013-11-04 16:48:00,53.3,36.1,30.48,NE,53,0.0,1.0,52,0.00,,,0.00,Wunderground v.1.15,2013-11-04 21:48:00,
2013-11-04 16:49:00,53.1,35.4,30.48,NE,53,0.0,1.0,51,0.00,,,0.00,Wunderground v.1.15,2013-11-04 21:49:00,
2013-11-04 16:50:00,52.9,34.8,30.48,NE,53,0.0,0.0,50,0.00,,,0.00,Wunderground v.1.15,2013-11-04 21:50:00,
2013-11-04 16:51:00,52.8,35.2,30.48,NE,53,0.0,0.0,51,0.00,,,0.00,Wunderground v.1.15,2013-11-04 21:51:00,
2013-11-04 16:53:00,52.6,35.0,30.48,NE,53,0.0,0.0,51,0.00,,,0.00,Wunderground v.1.15,2013-11-04 21:53:00,
2013-11-04 16:55:00,52.4,35.8,30.48,NE,53,0.0,0.0,53,0.00,,,0.00,Wunderground v.1.15,2013-11-04 21:55:00,
2013-11-04 16:56:00,52.2,35.6,30.48,NE,53,0.0,0.0,53,0.00,,,0.00,Wunderground v.1.15,2013-11-04 21:56:00,
2013-11-04 16:58:00,51.9,36.2,30.48,NE,53,0.0,0.0,55,0.00,,,0.00,Wunderground v.1.15,2013-11-04 21:58:00,
2013-11-04 16:59:00,51.9,36.2,30.48,NE,53,0.0,0.0,55,0.00,,,0.00,Wunderground v.1.15,2013-11-04 21:59:00,
2013-11-04 17:00:00,51.7,36.0,30.48,NE,53,0.0,0.0,55,0.00,,,0.00,Wunderground v.1.15,2013-11-04 22:00:00,
2013-11-04 17:01:00,51.6,36.4,30.48,NE,53,0.0,0.0,56,0.00,,,0.00,Wunderground v.1.15,2013-11-04 22:01:00,
2013-11-04 17:03:00,50.9,35.7,30.48,N/A,-737280,0.0,-999.0,56,0.00,,,0.00,Wunderground v.1.15,2013-11-04 22:03:00,
2013-11-04 17:04:00,51.2,35.6,30.49,NE,53,0.0,0.0,55,0.00,,,0.00,Wunderground v.1.15,2013-11-04 22:04:00,
2013-11-04 17:05:00,51.0,35.4,30.48,NE,53,0.0,0.0,55,0.00,,,0.00,Wunderground v.1.15,2013-11-04 22:05:00,
2013-11-04 17:06:00,50.9,35.7,30.48,NE,53,0.0,0.0,56,0.00,,,0.00,Wunderground v.1.15,2013-11-04 22:06:00,
2013-11-04 17:08:00,50.7,36.0,30.48,NE,53,0.0,0.0,57,0.00,,,0.00,Wunderground v.1.15,2013-11-04 22:08:00,
2013-11-04 17:09:00,50.6,36.4,30.48,NE,53,0.0,0.0,58,0.00,,,0.00,Wunderground v.1.15,2013-11-04 22:09:00,
2013-11-04 17:10:00,50.5,36.3,30.48,NE,53,0.0,0.0,58,0.00,,,0.00,Wunderground v.1.15,2013-11-04 22:10:00,
2013-11-04 17:12:00,50.2,36.0,30.48,NE,53,0.0,0.0,58,0.00,,,0.00,Wunderground v.1.15,2013-11-04 22:12:00,
2013-11-04 17:13:00,50.1,35.4,30.48,NE,53,0.0,0.0,57,0.00,,,0.00,Wunderground v.1.15,2013-11-04 22:13:00,
2013-11-04 17:14:00,50.0,35.4,30.48,NE,53,0.0,0.0,57,0.00,,,0.00,Wunderground v.1.15,2013-11-04 22:14:00,
2013-11-04 17:15:00,49.9,35.3,30.49,NE,53,0.0,0.0,57,0.00,,,0.00,Wunderground v.1.15,2013-11-04 22:15:00,
2013-11-04 17:18:00,49.5,35.3,30.49,NE,53,0.0,0.0,58,0.00,,,0.00,Wunderground v.1.15,2013-11-04 22:18:00,
2013-11-04 17:19:00,49.3,35.1,30.49,NE,53,0.0,0.0,58,0.00,,,0.00,Wunderground v.1.15,2013-11-04 22:19:00,
2013-11-04 17:20:00,49.2,35.0,30.49,NE,53,0.0,0.0,58,0.00,,,0.00,Wunderground v.1.15,2013-11-04 22:20:00,
2013-11-04 17:23:00,48.8,35.5,30.49,NE,53,0.0,0.0,60,0.00,,,0.00,Wunderground v.1.15,2013-11-04 22:23:00,
2013-11-04 17:24:00,48.7,35.4,30.49,NE,53,0.0,0.0,60,0.00,,,0.00,Wunderground v.1.15,2013-11-04 22:24:00,
2013-11-04 17:25:00,48.6,35.7,30.49,NE,53,0.0,0.0,61,0.00,,,0.00,Wunderground v.1.15,2013-11-04 22:25:00,
2013-11-04 17:28:00,48.2,35.0,30.49,NE,53,0.0,0.0,60,0.00,,,0.00,Wunderground v.1.15,2013-11-04 22:28:00,
2013-11-04 17:29:00,48.1,34.9,30.49,NE,53,0.0,0.0,60,0.00,,,0.00,Wunderground v.1.15,2013-11-04 22:29:00,
2013-11-04 17:30:00,47.9,34.7,30.49,NE,53,0.0,0.0,60,0.00,,,0.00,Wunderground v.1.15,2013-11-04 22:30:00,
2013-11-04 17:31:00,47.8,34.6,30.49,NE,53,0.0,0.0,60,0.00,,,0.00,Wunderground v.1.15,2013-11-04 22:31:00,
2013-11-04 17:33:00,47.5,35.1,30.49,NE,53,0.0,0.0,62,0.00,,,0.00,Wunderground v.1.15,2013-11-04 22:33:00,
2013-11-04 17:34:00,47.3,35.3,30.49,NE,53,0.0,0.0,63,0.00,,,0.00,Wunderground v.1.15,2013-11-04 22:34:00,
2013-11-04 17:35:00,47.3,35.7,30.49,NE,53,0.0,0.0,64,0.00,,,0.00,Wunderground v.1.15,2013-11-04 22:35:00,
2013-11-04 17:36:00,47.2,35.6,30.49,NE,53,0.0,0.0,64,0.00,,,0.00,Wunderground v.1.15,2013-11-04 22:36:00,
2013-11-04 17:38:00,46.9,35.4,30.49,NE,53,0.0,0.0,64,0.00,,,0.00,Wunderground v.1.15,2013-11-04 22:38:00,
2013-11-04 17:40:00,46.8,35.3,30.49,NE,53,0.0,0.0,64,0.00,,,0.00,Wunderground v.1.15,2013-11-04 22:40:00,
2013-11-04 17:41:00,46.7,35.2,30.49,NE,53,0.0,0.0,64,0.00,,,0.00,Wunderground v.1.15,2013-11-04 22:41:00,
2013-11-04 17:43:00,46.1,35.0,30.49,N/A,-737280,0.0,-999.0,65,0.00,,,0.00,Wunderground v.1.15,2013-11-04 22:43:00,
2013-11-04 17:44:00,46.4,34.9,30.49,NE,53,0.0,0.0,64,0.00,,,0.00,Wunderground v.1.15,2013-11-04 22:44:00,
2013-11-04 17:45:00,46.2,34.7,30.49,NE,53,0.0,0.0,64,0.00,,,0.00,Wunderground v.1.15,2013-11-04 22:45:00,
2013-11-04 17:46:00,46.1,34.6,30.49,NE,53,0.0,0.0,64,0.00,,,0.00,Wunderground v.1.15,2013-11-04 22:46:00,
2013-11-04 17:48:00,45.5,34.4,30.49,N/A,-737280,0.0,-999.0,65,0.00,,,0.00,Wunderground v.1.15,2013-11-04 22:48:00,
2013-11-04 17:50:00,45.7,34.6,30.49,NE,53,0.0,0.0,65,0.00,,,0.00,Wunderground v.1.15,2013-11-04 22:50:00,
2013-11-04 17:51:00,45.5,34.4,30.49,NE,53,0.0,0.0,65,0.00,,,0.00,Wunderground v.1.15,2013-11-04 22:51:00,
2013-11-04 17:53:00,45.3,34.6,30.49,N/A,-737280,0.0,-999.0,66,0.00,,,0.00,Wunderground v.1.15,2013-11-04 22:53:00,
2013-11-04 17:55:00,45.3,34.6,30.49,NE,53,0.0,0.0,66,0.00,,,0.00,Wunderground v.1.15,2013-11-04 22:55:00,
2013-11-04 17:56:00,45.3,34.6,30.49,NE,53,0.0,0.0,66,0.00,,,0.00,Wunderground v.1.15,2013-11-04 22:56:00,
2013-11-04 17:57:00,45.3,34.6,30.49,NE,53,0.0,0.0,66,0.00,,,0.00,Wunderground v.1.15,2013-11-04 22:57:00,
2013-11-04 17:58:00,45.0,34.7,30.49,N/A,-737280,0.0,-999.0,67,0.00,,,0.00,Wunderground v.1.15,2013-11-04 22:58:00,
2013-11-04 18:01:00,45.1,34.8,30.49,NE,53,0.0,0.0,67,0.00,,,0.00,Wunderground v.1.15,2013-11-04 23:01:00,
2013-11-04 18:02:00,45.0,34.7,30.49,NE,52,0.0,0.0,67,0.00,,,0.00,Wunderground v.1.15,2013-11-04 23:02:00,
2013-11-04 18:03:00,44.6,34.7,30.49,N/A,-737280,0.0,-999.0,68,0.00,,,0.00,Wunderground v.1.15,2013-11-04 23:03:00,
2013-11-04 18:06:00,44.6,34.7,30.49,NE,53,0.0,0.0,68,0.00,,,0.00,Wunderground v.1.15,2013-11-04 23:06:00,
2013-11-04 18:07:00,44.5,34.6,30.49,NE,53,0.0,0.0,68,0.00,,,0.00,Wunderground v.1.15,2013-11-04 23:07:00,
2013-11-04 18:08:00,44.2,35.0,30.49,N/A,-737280,0.0,-999.0,70,0.00,,,0.00,Wunderground v.1.15,2013-11-04 23:08:00,
2013-11-04 18:11:00,44.2,35.0,30.49,NE,53,0.0,0.0,70,0.00,,,0.00,Wunderground v.1.15,2013-11-04 23:11:00,
2013-11-04 18:12:00,44.2,35.0,30.49,NE,53,0.0,0.0,70,0.00,,,0.00,Wunderground v.1.15,2013-11-04 23:12:00,
2013-11-04 18:13:00,43.9,34.4,30.49,N/A,-737280,0.0,-999.0,69,0.00,,,0.00,Wunderground v.1.15,2013-11-04 23:13:00,
2013-11-04 18:17:00,43.9,34.4,30.49,NE,53,0.0,0.0,69,0.00,,,0.00,Wunderground v.1.15,2013-11-04 23:17:00,
2013-11-04 18:18:00,43.8,34.6,30.49,NE,52,0.0,0.0,70,0.00,,,0.00,Wunderground v.1.15,2013-11-04 23:18:00,
2013-11-04 18:22:00,43.7,34.9,30.49,NE,53,0.0,0.0,71,0.00,,,0.00,Wunderground v.1.15,2013-11-04 23:22:00,
2013-11-04 18:23:00,43.6,34.8,30.49,NE,53,0.0,0.0,71,0.00,,,0.00,Wunderground v.1.15,2013-11-04 23:23:00,
2013-11-04 18:27:00,43.5,35.4,30.49,NE,53,0.0,0.0,73,0.00,,,0.00,Wunderground v.1.15,2013-11-04 23:27:00,
2013-11-04 18:28:00,43.5,35.1,30.50,NE,53,0.0,0.0,72,0.00,,,0.00,Wunderground v.1.15,2013-11-04 23:28:00,
2013-11-04 18:32:00,43.4,35.0,30.50,NE,53,0.0,0.0,72,0.00,,,0.00,Wunderground v.1.15,2013-11-04 23:32:00,
2013-11-04 18:33:00,43.3,34.9,30.50,NE,53,0.0,0.0,72,0.00,,,0.00,Wunderground v.1.15,2013-11-04 23:33:00,
2013-11-04 18:34:00,43.3,34.9,30.50,NE,52,0.0,0.0,72,0.00,,,0.00,Wunderground v.1.15,2013-11-04 23:34:00,
2013-11-04 18:37:00,43.2,34.8,30.50,NE,53,0.0,0.0,72,0.00,,,0.00,Wunderground v.1.15,2013-11-04 23:37:00,
2013-11-04 18:38:00,43.1,34.7,30.50,NE,53,0.0,0.0,72,0.00,,,0.00,Wunderground v.1.15,2013-11-04 23:38:00,
2013-11-04 18:39:00,43.1,34.7,30.50,NE,53,0.0,0.0,72,0.00,,,0.00,Wunderground v.1.15,2013-11-04 23:39:00,
2013-11-04 18:42:00,42.9,34.5,30.50,NE,53,0.0,0.0,72,0.00,,,0.00,Wunderground v.1.15,2013-11-04 23:42:00,
2013-11-04 18:43:00,42.9,34.8,30.50,NE,53,0.0,0.0,73,0.00,,,0.00,Wunderground v.1.15,2013-11-04 23:43:00,
2013-11-04 18:44:00,42.9,34.8,30.50,NE,52,0.0,0.0,73,0.00,,,0.00,Wunderground v.1.15,2013-11-04 23:44:00,
2013-11-04 18:45:00,42.8,34.7,30.50,NE,53,0.0,0.0,73,0.00,,,0.00,Wunderground v.1.15,2013-11-04 23:45:00,
2013-11-04 18:47:00,42.8,34.4,30.50,NE,52,0.0,0.0,72,0.00,,,0.00,Wunderground v.1.15,2013-11-04 23:47:00,
2013-11-04 18:48:00,42.8,34.7,30.50,N/A,-737280,0.0,-999.0,73,0.00,,,0.00,Wunderground v.1.15,2013-11-04 23:48:00,
2013-11-04 18:49:00,42.9,34.1,30.50,NE,53,0.0,0.0,71,0.00,,,0.00,Wunderground v.1.15,2013-11-04 23:49:00,
2013-11-04 18:50:00,42.9,34.1,30.50,NE,53,0.0,0.0,71,0.00,,,0.00,Wunderground v.1.15,2013-11-04 23:50:00,
2013-11-04 18:52:00,42.8,34.7,30.50,NE,53,0.0,0.0,73,0.00,,,0.00,Wunderground v.1.15,2013-11-04 23:52:00,
2013-11-04 18:53:00,42.9,35.2,30.50,N/A,-737280,0.0,-999.0,74,0.00,,,0.00,Wunderground v.1.15,2013-11-04 23:53:00,
2013-11-04 18:54:00,42.9,35.2,30.50,NE,53,0.0,0.0,74,0.00,,,0.00,Wunderground v.1.15,2013-11-04 23:54:00,
2013-11-04 18:55:00,42.9,35.2,30.50,NE,53,0.0,0.0,74,0.00,,,0.00,Wunderground v.1.15,2013-11-04 23:55:00,
2013-11-04 18:56:00,42.9,35.2,30.50,NE,53,0.0,0.0,74,0.00,,,0.00,Wunderground v.1.15,2013-11-04 23:56:00,
2013-11-04 18:57:00,42.9,35.2,30.50,NE,53,0.0,0.0,74,0.00,,,0.00,Wunderground v.1.15,2013-11-04 23:57:00,
2013-11-04 18:58:00,42.9,34.8,30.50,N/A,-737280,0.0,-999.0,73,0.00,,,0.00,Wunderground v.1.15,2013-11-04 23:58:00,
2013-11-04 19:00:00,42.9,34.8,30.50,NE,53,0.0,0.0,73,0.00,,,0.00,Wunderground v.1.15,2013-11-05 00:00:00,
2013-11-04 19:01:00,42.9,34.8,30.50,NE,52,0.0,0.0,73,0.00,,,0.00,Wunderground v.1.15,2013-11-05 00:01:00,
2013-11-04 19:03:00,42.9,35.5,30.50,NE,53,0.0,0.0,75,0.00,,,0.00,Wunderground v.1.15,2013-11-05 00:03:00,
2013-11-04 19:05:00,42.9,35.5,30.50,NE,53,0.0,0.0,75,0.00,,,0.00,Wunderground v.1.15,2013-11-05 00:05:00,
2013-11-04 19:06:00,42.9,35.2,30.50,NE,53,0.0,0.0,74,0.00,,,0.00,Wunderground v.1.15,2013-11-05 00:06:00,
2013-11-04 19:08:00,42.8,35.1,30.50,NE,53,0.0,0.0,74,0.00,,,0.00,Wunderground v.1.15,2013-11-05 00:08:00,
2013-11-04 19:10:00,42.7,35.0,30.50,NE,53,0.0,0.0,74,0.00,,,0.00,Wunderground v.1.15,2013-11-05 00:10:00,
2013-11-04 19:11:00,42.7,35.0,30.50,NE,53,0.0,0.0,74,0.00,,,0.00,Wunderground v.1.15,2013-11-05 00:11:00,
2013-11-04 19:13:00,42.6,35.2,30.50,NE,53,0.0,0.0,75,0.00,,,0.00,Wunderground v.1.15,2013-11-05 00:13:00,
2013-11-04 19:15:00,42.5,35.1,30.51,NE,52,0.0,0.0,75,0.00,,,0.00,Wunderground v.1.15,2013-11-05 00:15:00,
2013-11-04 19:16:00,42.5,34.8,30.51,NE,53,0.0,0.0,74,0.00,,,0.00,Wunderground v.1.15,2013-11-05 00:16:00,
2013-11-04 19:18:00,42.2,35.2,30.51,N/A,-737280,0.0,-999.0,76,0.00,,,0.00,Wunderground v.1.15,2013-11-05 00:18:00,
2013-11-04 19:19:00,42.3,34.9,30.51,NE,53,0.0,0.0,75,0.00,,,0.00,Wunderground v.1.15,2013-11-05 00:19:00,
2013-11-04 19:21:00,42.2,35.2,30.51,NE,53,0.0,0.0,76,0.00,,,0.00,Wunderground v.1.15,2013-11-05 00:21:00,
2013-11-04 19:23:00,41.9,34.6,30.51,N/A,-737280,0.0,-999.0,75,0.00,,,0.00,Wunderground v.1.15,2013-11-05 00:23:00,
2013-11-04 19:24:00,42.1,34.7,30.51,NE,53,0.0,0.0,75,0.00,,,0.00,Wunderground v.1.15,2013-11-05 00:24:00,
2013-11-04 19:26:00,41.9,34.6,30.51,NE,53,0.0,0.0,75,0.00,,,0.00,Wunderground v.1.15,2013-11-05 00:26:00,
2013-11-04 19:28:00,41.4,34.4,30.51,N/A,-737280,0.0,-999.0,76,0.00,,,0.00,Wunderground v.1.15,2013-11-05 00:28:00,
2013-11-04 19:29:00,41.6,34.6,30.51,NE,53,0.0,0.0,76,0.00,,,0.00,Wunderground v.1.15,2013-11-05 00:29:00,
2013-11-04 19:31:00,41.4,34.4,30.51,NE,53,0.0,0.0,76,0.00,,,0.00,Wunderground v.1.15,2013-11-05 00:31:00,
2013-11-04 19:32:00,41.3,34.3,30.51,NE,53,0.0,0.0,76,0.00,,,0.00,Wunderground v.1.15,2013-11-05 00:32:00,
2013-11-04 19:33:00,41.0,34.7,30.51,N/A,-737280,0.0,-999.0,78,0.00,,,0.00,Wunderground v.1.15,2013-11-05 00:33:00,
2013-11-04 19:34:00,41.1,34.4,30.51,NE,53,0.0,0.0,77,0.00,,,0.00,Wunderground v.1.15,2013-11-05 00:34:00,
2013-11-04 19:36:00,40.9,34.6,30.51,NE,53,0.0,0.0,78,0.00,,,0.00,Wunderground v.1.15,2013-11-05 00:36:00,
2013-11-04 19:37:00,41.0,34.7,30.51,NE,53,0.0,0.0,78,0.00,,,0.00,Wunderground v.1.15,2013-11-05 00:37:00,
2013-11-04 19:38:00,40.9,34.6,30.51,N/A,-737280,0.0,-999.0,78,0.00,,,0.00,Wunderground v.1.15,2013-11-05 00:38:00,
2013-11-04 19:39:00,40.9,34.6,30.51,NE,53,0.0,0.0,78,0.00,,,0.00,Wunderground v.1.15,2013-11-05 00:39:00,
2013-11-04 19:41:00,40.9,34.9,30.51,NE,53,0.0,0.0,79,0.00,,,0.00,Wunderground v.1.15,2013-11-05 00:41:00,
2013-11-04 19:42:00,40.9,34.9,30.51,NE,52,0.0,0.0,79,0.00,,,0.00,Wunderground v.1.15,2013-11-05 00:42:00,
2013-11-04 19:43:00,40.9,34.9,30.51,N/A,-737280,0.0,-999.0,79,0.00,,,0.00,Wunderground v.1.15,2013-11-05 00:43:00,
2013-11-04 19:44:00,40.9,34.9,30.51,NE,53,0.0,0.0,79,0.00,,,0.00,Wunderground v.1.15,2013-11-05 00:44:00,
2013-11-04 19:46:00,40.9,34.9,30.51,NE,53,0.0,0.0,79,0.00,,,0.00,Wunderground v.1.15,2013-11-05 00:46:00,
2013-11-04 19:47:00,40.9,34.9,30.51,NE,53,0.0,0.0,79,0.00,,,0.00,Wunderground v.1.15,2013-11-05 00:47:00,
2013-11-04 19:48:00,40.9,34.9,30.51,NE,53,0.0,0.0,79,0.00,,,0.00,Wunderground v.1.15,2013-11-05 00:48:00,
2013-11-04 19:49:00,40.9,34.9,30.51,NE,53,0.0,0.0,79,0.00,,,0.00,Wunderground v.1.15,2013-11-05 00:49:00,
2013-11-04 19:51:00,40.8,34.8,30.51,NE,53,0.0,0.0,79,0.00,,,0.00,Wunderground v.1.15,2013-11-05 00:51:00,
2013-11-04 19:52:00,40.8,34.8,30.51,NE,53,0.0,0.0,79,0.00,,,0.00,Wunderground v.1.15,2013-11-05 00:52:00,
2013-11-04 19:53:00,40.7,34.7,30.51,NE,53,0.0,0.0,79,0.00,,,0.00,Wunderground v.1.15,2013-11-05 00:53:00,
2013-11-04 19:54:00,40.6,34.6,30.51,NE,53,0.0,0.0,79,0.00,,,0.00,Wunderground v.1.15,2013-11-05 00:54:00,
2013-11-04 19:57:00,40.6,35.2,30.51,NE,53,0.0,0.0,81,0.00,,,0.00,Wunderground v.1.15,2013-11-05 00:57:00,
2013-11-04 19:58:00,40.7,35.3,30.51,N/A,-737280,0.0,-999.0,81,0.00,,,0.00,Wunderground v.1.15,2013-11-05 00:58:00,
2013-11-04 19:59:00,40.6,35.2,30.51,NE,53,0.0,0.0,81,0.00,,,0.00,Wunderground v.1.15,2013-11-05 00:59:00,
2013-11-04 20:00:00,40.7,35.3,30.51,NE,53,0.0,0.0,81,0.00,,,0.00,Wunderground v.1.15,2013-11-05 01:00:00,
2013-11-04 20:02:00,40.7,35.3,30.51,NE,52,0.0,0.0,81,0.00,,,0.00,Wunderground v.1.15,2013-11-05 01:02:00,
2013-11-04 20:03:00,40.7,35.0,30.51,NE,53,0.0,0.0,80,0.00,,,0.00,Wunderground v.1.15,2013-11-05 01:03:00,
2013-11-04 20:04:00,40.7,34.7,30.51,NE,53,0.0,0.0,79,0.00,,,0.00,Wunderground v.1.15,2013-11-05 01:04:00,
2013-11-04 20:05:00,40.7,35.0,30.51,NE,53,0.0,0.0,80,0.00,,,0.00,Wunderground v.1.15,2013-11-05 01:05:00,
2013-11-04 20:07:00,40.8,35.4,30.51,NE,53,0.0,0.0,81,0.00,,,0.00,Wunderground v.1.15,2013-11-05 01:07:00,
2013-11-04 20:08:00,40.9,35.8,30.51,NE,53,0.0,0.0,82,0.00,,,0.00,Wunderground v.1.15,2013-11-05 01:08:00,
2013-11-04 20:09:00,40.9,35.8,30.51,NE,53,0.0,0.0,82,0.00,,,0.00,Wunderground v.1.15,2013-11-05 01:09:00,
2013-11-04 20:10:00,41.0,35.9,30.51,NE,53,0.0,0.0,82,0.00,,,0.00,Wunderground v.1.15,2013-11-05 01:10:00,
2013-11-04 20:12:00,41.0,35.3,30.52,NE,53,0.0,0.0,80,0.00,,,0.00,Wunderground v.1.15,2013-11-05 01:12:00,
2013-11-04 20:13:00,41.0,35.3,30.52,NE,53,0.0,0.0,80,0.00,,,0.00,Wunderground v.1.15,2013-11-05 01:13:00,
2013-11-04 20:14:00,40.9,34.9,30.52,NE,53,0.0,0.0,79,0.00,,,0.00,Wunderground v.1.15,2013-11-05 01:14:00,
2013-11-04 20:15:00,40.9,34.9,30.53,NE,53,0.0,0.0,79,0.00,,,0.00,Wunderground v.1.15,2013-11-05 01:15:00,
2013-11-04 20:18:00,40.6,34.6,30.53,N/A,-737280,0.0,-999.0,79,0.00,,,0.00,Wunderground v.1.15,2013-11-05 01:18:00,
2013-11-04 20:23:00,40.4,34.7,30.53,N/A,-737280,0.0,-999.0,80,0.00,,,0.00,Wunderground v.1.15,2013-11-05 01:23:00,
2013-11-04 20:28:00,40.6,35.2,30.53,N/A,-737280,0.0,-999.0,81,0.00,,,0.00,Wunderground v.1.15,2013-11-05 01:28:00,
2013-11-04 20:33:00,40.5,34.8,30.53,N/A,-737280,0.0,-999.0,80,0.00,,,0.00,Wunderground v.1.15,2013-11-05 01:33:00,
2013-11-04 20:38:00,40.7,35.0,30.53,NE,45,0.0,-999.0,80,0.00,,,0.00,Wunderground v.1.15,2013-11-05 01:38:00,
2013-11-04 20:43:00,40.7,34.7,30.53,N/A,-737280,0.0,-999.0,79,0.00,,,0.00,Wunderground v.1.15,2013-11-05 01:43:00,
2013-11-04 20:48:00,40.6,34.6,30.54,N/A,-737280,0.0,-999.0,79,0.00,,,0.00,Wunderground v.1.15,2013-11-05 01:48:00,
2013-11-04 20:53:00,40.5,34.5,30.54,N/A,-737280,0.0,-999.0,79,0.00,,,0.00,Wunderground v.1.15,2013-11-05 01:53:00,
2013-11-04 20:58:00,40.3,34.3,30.54,N/A,-737280,0.0,-999.0,79,0.00,,,0.00,Wunderground v.1.15,2013-11-05 01:58:00,
2013-11-04 21:03:00,40.3,34.6,30.53,N/A,-737280,0.0,-999.0,80,0.00,,,0.00,Wunderground v.1.15,2013-11-05 02:03:00,
2013-11-04 21:08:00,40.5,34.8,30.53,N/A,-737280,0.0,-999.0,80,0.00,,,0.00,Wunderground v.1.15,2013-11-05 02:08:00,
2013-11-04 21:13:00,40.5,35.1,30.53,N/A,-737280,0.0,-999.0,81,0.00,,,0.00,Wunderground v.1.15,2013-11-05 02:13:00,
2013-11-04 21:18:00,40.6,35.2,30.52,N/A,-737280,0.0,-999.0,81,0.00,,,0.00,Wunderground v.1.15,2013-11-05 02:18:00,
2013-11-04 21:23:00,40.6,35.2,30.52,N/A,-737280,0.0,-999.0,81,0.00,,,0.00,Wunderground v.1.15,2013-11-05 02:23:00,
2013-11-04 21:28:00,40.4,34.7,30.53,N/A,-737280,0.0,-999.0,80,0.00,,,0.00,Wunderground v.1.15,2013-11-05 02:28:00,
2013-11-04 21:33:00,39.9,34.2,30.53,N/A,-737280,0.0,-999.0,80,0.00,,,0.00,Wunderground v.1.15,2013-11-05 02:33:00,
2013-11-04 21:38:00,39.6,33.9,30.53,N/A,-737280,0.0,-999.0,80,0.00,,,0.00,Wunderground v.1.15,2013-11-05 02:38:00,
2013-11-04 21:43:00,39.4,34.1,30.54,N/A,-737280,0.0,-999.0,81,0.00,,,0.00,Wunderground v.1.15,2013-11-05 02:43:00,
2013-11-04 21:48:00,39.3,34.3,30.53,N/A,-737280,0.0,-999.0,82,0.00,,,0.00,Wunderground v.1.15,2013-11-05 02:48:00,
2013-11-04 21:53:00,39.1,33.8,30.54,N/A,-737280,0.0,-999.0,81,0.00,,,0.00,Wunderground v.1.15,2013-11-05 02:53:00,
2013-11-04 21:58:00,39.0,34.0,30.53,NE,53,0.0,0.0,82,0.00,,,0.00,Wunderground v.1.15,2013-11-05 02:58:00,
2013-11-04 21:59:00,39.0,34.0,30.53,NE,53,0.0,0.0,82,0.00,,,0.00,Wunderground v.1.15,2013-11-05 02:59:00,
2013-11-04 22:03:00,39.1,34.4,30.53,NE,53,0.0,0.0,83,0.00,,,0.00,Wunderground v.1.15,2013-11-05 03:03:00,
2013-11-04 22:04:00,39.1,34.4,30.53,NE,53,0.0,0.0,83,0.00,,,0.00,Wunderground v.1.15,2013-11-05 03:04:00,
2013-11-04 22:08:00,39.1,34.1,30.53,NE,53,0.0,0.0,82,0.00,,,0.00,Wunderground v.1.15,2013-11-05 03:08:00,
2013-11-04 22:09:00,39.1,34.1,30.53,NE,53,0.0,0.0,82,0.00,,,0.00,Wunderground v.1.15,2013-11-05 03:09:00,
2013-11-04 22:10:00,39.1,34.1,30.53,NE,53,0.0,0.0,82,0.00,,,0.00,Wunderground v.1.15,2013-11-05 03:10:00,
2013-11-04 22:13:00,39.1,34.4,30.53,NE,52,0.0,0.0,83,0.00,,,0.00,Wunderground v.1.15,2013-11-05 03:13:00,
2013-11-04 22:14:00,39.1,34.4,30.53,NE,52,0.0,0.0,83,0.00,,,0.00,Wunderground v.1.15,2013-11-05 03:14:00,
2013-11-04 22:15:00,39.1,34.1,30.53,NE,53,0.0,0.0,82,0.00,,,0.00,Wunderground v.1.15,2013-11-05 03:15:00,
2013-11-04 22:18:00,39.0,34.0,30.53,NE,53,0.0,0.0,82,0.00,,,0.00,Wunderground v.1.15,2013-11-05 03:18:00,
2013-11-04 22:19:00,39.1,34.1,30.53,NE,53,0.0,0.0,82,0.00,,,0.00,Wunderground v.1.15,2013-11-05 03:19:00,
2013-11-04 22:20:00,39.0,34.0,30.53,NE,53,0.0,0.0,82,0.00,,,0.00,Wunderground v.1.15,2013-11-05 03:20:00,
2013-11-04 22:23:00,38.9,33.6,30.54,N/A,-737280,0.0,-999.0,81,0.00,,,0.00,Wunderground v.1.15,2013-11-05 03:23:00,
2013-11-04 22:24:00,38.9,33.6,30.54,NE,53,0.0,0.0,81,0.00,,,0.00,Wunderground v.1.15,2013-11-05 03:24:00,
2013-11-04 22:25:00,38.9,33.6,30.54,NE,53,0.0,0.0,81,0.00,,,0.00,Wunderground v.1.15,2013-11-05 03:25:00,
2013-11-04 22:28:00,38.7,33.4,30.54,N/A,-737280,0.0,-999.0,81,0.00,,,0.00,Wunderground v.1.15,2013-11-05 03:28:00,
2013-11-04 22:29:00,38.7,33.4,30.54,NE,53,0.0,0.0,81,0.00,,,0.00,Wunderground v.1.15,2013-11-05 03:29:00,
2013-11-04 22:30:00,38.7,33.4,30.54,NE,53,0.0,0.0,81,0.00,,,0.00,Wunderground v.1.15,2013-11-05 03:30:00,
2013-11-04 22:31:00,38.7,33.4,30.54,NE,53,0.0,0.0,81,0.00,,,0.00,Wunderground v.1.15,2013-11-05 03:31:00,
2013-11-04 22:33:00,38.6,33.9,30.54,N/A,-737280,0.0,-999.0,83,0.00,,,0.00,Wunderground v.1.15,2013-11-05 03:33:00,
2013-11-04 22:34:00,38.7,34.3,30.55,NE,53,0.0,0.0,84,0.00,,,0.00,Wunderground v.1.15,2013-11-05 03:34:00,
2013-11-04 22:35:00,38.6,34.2,30.55,NE,53,0.0,0.0,84,0.00,,,0.00,Wunderground v.1.15,2013-11-05 03:35:00,
2013-11-04 22:36:00,38.6,33.9,30.55,NE,53,0.0,0.0,83,0.00,,,0.00,Wunderground v.1.15,2013-11-05 03:36:00,
2013-11-04 22:38:00,38.5,33.8,30.54,N/A,-737280,0.0,-999.0,83,0.00,,,0.00,Wunderground v.1.15,2013-11-05 03:38:00,
2013-11-04 22:40:00,38.5,33.5,30.54,NE,53,0.0,0.0,82,0.00,,,0.00,Wunderground v.1.15,2013-11-05 03:40:00,
2013-11-04 22:41:00,38.5,33.8,30.54,NE,53,0.0,0.0,83,0.00,,,0.00,Wunderground v.1.15,2013-11-05 03:41:00,
2013-11-04 22:43:00,38.4,33.7,30.54,N/A,-737280,0.0,-999.0,83,0.00,,,0.00,Wunderground v.1.15,2013-11-05 03:43:00,
2013-11-04 22:45:00,38.4,34.0,30.54,NE,52,0.0,0.0,84,0.00,,,0.00,Wunderground v.1.15,2013-11-05 03:45:00,
2013-11-04 22:46:00,38.4,33.7,30.54,NE,53,0.0,0.0,83,0.00,,,0.00,Wunderground v.1.15,2013-11-05 03:46:00,
2013-11-04 22:48:00,38.3,33.6,30.54,N/A,-737280,0.0,-999.0,83,0.00,,,0.00,Wunderground v.1.15,2013-11-05 03:48:00,
2013-11-04 22:50:00,38.3,33.6,30.54,NE,53,0.0,0.0,83,0.00,,,0.00,Wunderground v.1.15,2013-11-05 03:50:00,
2013-11-04 22:51:00,38.3,33.6,30.54,NE,52,0.0,0.0,83,0.00,,,0.00,Wunderground v.1.15,2013-11-05 03:51:00,
2013-11-04 22:52:00,38.3,33.6,30.54,NE,53,0.0,0.0,83,0.00,,,0.00,Wunderground v.1.15,2013-11-05 03:52:00,
2013-11-04 22:53:00,38.1,33.4,30.54,N/A,-737280,0.0,-999.0,83,0.00,,,0.00,Wunderground v.1.15,2013-11-05 03:53:00,
2013-11-04 22:55:00,38.2,33.5,30.54,NE,52,0.0,0.0,83,0.00,,,0.00,Wunderground v.1.15,2013-11-05 03:55:00,
2013-11-04 22:56:00,38.2,33.5,30.54,NE,53,0.0,0.0,83,0.00,,,0.00,Wunderground v.1.15,2013-11-05 03:56:00,
2013-11-04 22:57:00,38.1,33.4,30.54,NE,53,0.0,0.0,83,0.00,,,0.00,Wunderground v.1.15,2013-11-05 03:57:00,
2013-11-04 22:58:00,38.1,34.0,30.54,N/A,-737280,0.0,-999.0,85,0.00,,,0.00,Wunderground v.1.15,2013-11-05 03:58:00,
2013-11-04 23:00:00,38.1,33.7,30.54,NE,53,0.0,0.0,84,0.00,,,0.00,Wunderground v.1.15,2013-11-05 04:00:00,
2013-11-04 23:01:00,38.1,34.0,30.54,NE,53,0.0,0.0,85,0.00,,,0.00,Wunderground v.1.15,2013-11-05 04:01:00,
2013-11-04 23:02:00,38.1,33.7,30.54,NE,53,0.0,0.0,84,0.00,,,0.00,Wunderground v.1.15,2013-11-05 04:02:00,
2013-11-04 23:03:00,37.9,33.2,30.54,N/A,-737280,0.0,-999.0,83,0.00,,,0.00,Wunderground v.1.15,2013-11-05 04:03:00,
2013-11-04 23:05:00,37.9,33.2,30.54,NE,53,0.0,0.0,83,0.00,,,0.00,Wunderground v.1.15,2013-11-05 04:05:00,
2013-11-04 23:06:00,37.9,33.2,30.54,NE,53,0.0,0.0,83,0.00,,,0.00,Wunderground v.1.15,2013-11-05 04:06:00,
2013-11-04 23:07:00,37.9,33.2,30.54,NE,53,0.0,0.0,83,0.00,,,0.00,Wunderground v.1.15,2013-11-05 04:07:00,
2013-11-04 23:08:00,37.8,33.1,30.54,NE,53,0.0,0.0,83,0.00,,,0.00,Wunderground v.1.15,2013-11-05 04:08:00,
2013-11-04 23:11:00,37.8,33.1,30.54,NE,53,0.0,0.0,83,0.00,,,0.00,Wunderground v.1.15,2013-11-05 04:11:00,
2013-11-04 23:12:00,37.7,33.0,30.54,NE,53,0.0,0.0,83,0.00,,,0.00,Wunderground v.1.15,2013-11-05 04:12:00,
2013-11-04 23:13:00,37.5,32.8,30.54,N/A,-737280,0.0,-999.0,83,0.00,,,0.00,Wunderground v.1.15,2013-11-05 04:13:00,
2013-11-04 23:14:00,37.6,32.9,30.54,NE,53,0.0,0.0,83,0.00,,,0.00,Wunderground v.1.15,2013-11-05 04:14:00,
2013-11-04 23:16:00,37.5,32.8,30.54,NE,53,0.0,0.0,83,0.00,,,0.00,Wunderground v.1.15,2013-11-05 04:16:00,
2013-11-04 23:17:00,37.5,32.8,30.54,NE,53,0.0,0.0,83,0.00,,,0.00,Wunderground v.1.15,2013-11-05 04:17:00,
2013-11-04 23:18:00,37.5,33.1,30.54,NE,53,0.0,0.0,84,0.00,,,0.00,Wunderground v.1.15,2013-11-05 04:18:00,
2013-11-04 23:20:00,37.5,33.4,30.54,NE,53,0.0,0.0,85,0.00,,,0.00,Wunderground v.1.15,2013-11-05 04:20:00,
2013-11-04 23:21:00,37.5,33.1,30.54,NE,53,0.0,0.0,84,0.00,,,0.00,Wunderground v.1.15,2013-11-05 04:21:00,
2013-11-04 23:22:00,37.5,33.1,30.54,NE,53,0.0,0.0,84,0.00,,,0.00,Wunderground v.1.15,2013-11-05 04:22:00,
2013-11-04 23:23:00,37.4,33.0,30.54,N/A,-737280,0.0,-999.0,84,0.00,,,0.00,Wunderground v.1.15,2013-11-05 04:23:00,
2013-11-04 23:24:00,37.4,33.0,30.54,NE,53,0.0,0.0,84,0.00,,,0.00,Wunderground v.1.15,2013-11-05 04:24:00,
2013-11-04 23:25:00,37.4,33.0,30.54,NE,53,0.0,0.0,84,0.00,,,0.00,Wunderground v.1.15,2013-11-05 04:25:00,
2013-11-04 23:26:00,37.4,33.0,30.54,NE,53,0.0,0.0,84,0.00,,,0.00,Wunderground v.1.15,2013-11-05 04:26:00,
2013-11-04 23:27:00,37.3,32.9,30.54,NE,53,0.0,0.0,84,0.00,,,0.00,Wunderground v.1.15,2013-11-05 04:27:00,
2013-11-04 23:28:00,37.2,32.8,30.54,N/A,-737280,0.0,-999.0,84,0.00,,,0.00,Wunderground v.1.15,2013-11-05 04:28:00,
2013-11-04 23:29:00,37.2,32.8,30.54,NE,53,0.0,0.0,84,0.00,,,0.00,Wunderground v.1.15,2013-11-05 04:29:00,
2013-11-04 23:30:00,37.2,32.8,30.54,NE,53,0.0,0.0,84,0.00,,,0.00,Wunderground v.1.15,2013-11-05 04:30:00,
2013-11-04 23:31:00,37.2,32.8,30.54,NE,53,0.0,0.0,84,0.00,,,0.00,Wunderground v.1.15,2013-11-05 04:31:00,
2013-11-04 23:32:00,37.2,33.1,30.54,NE,53,0.0,0.0,85,0.00,,,0.00,Wunderground v.1.15,2013-11-05 04:32:00,
2013-11-04 23:33:00,37.3,33.2,30.54,NE,53,0.0,0.0,85,0.00,,,0.00,Wunderground v.1.15,2013-11-05 04:33:00,
2013-11-04 23:35:00,37.3,33.5,30.54,NE,53,0.0,0.0,86,0.00,,,0.00,Wunderground v.1.15,2013-11-05 04:35:00,
2013-11-04 23:36:00,37.2,33.4,30.54,NE,53,0.0,0.0,86,0.00,,,0.00,Wunderground v.1.15,2013-11-05 04:36:00,
2013-11-04 23:37:00,37.2,33.1,30.54,NE,53,0.0,0.0,85,0.00,,,0.00,Wunderground v.1.15,2013-11-05 04:37:00,
2013-11-04 23:38:00,37.1,33.0,30.54,NE,52,0.0,0.0,85,0.00,,,0.00,Wunderground v.1.15,2013-11-05 04:38:00,
2013-11-04 23:40:00,37.0,32.9,30.54,NE,53,0.0,0.0,85,0.00,,,0.00,Wunderground v.1.15,2013-11-05 04:40:00,
2013-11-04 23:41:00,37.0,32.9,30.54,NE,53,0.0,0.0,85,0.00,,,0.00,Wunderground v.1.15,2013-11-05 04:41:00,
2013-11-04 23:43:00,36.9,32.8,30.54,NE,53,0.0,0.0,85,0.00,,,0.00,Wunderground v.1.15,2013-11-05 04:43:00,
2013-11-04 23:45:00,36.9,33.1,30.54,NE,53,0.0,0.0,86,0.00,,,0.00,Wunderground v.1.15,2013-11-05 04:45:00,
2013-11-04 23:46:00,36.9,33.1,30.54,NE,53,0.0,0.0,86,0.00,,,0.00,Wunderground v.1.15,2013-11-05 04:46:00,
2013-11-04 23:48:00,36.8,33.0,30.54,NE,52,0.0,0.0,86,0.00,,,0.00,Wunderground v.1.15,2013-11-05 04:48:00,
2013-11-04 23:49:00,36.8,33.0,30.54,NE,53,0.0,0.0,86,0.00,,,0.00,Wunderground v.1.15,2013-11-05 04:49:00,
2013-11-04 23:50:00,36.8,33.0,30.54,NE,53,0.0,0.0,86,0.00,,,0.00,Wunderground v.1.15,2013-11-05 04:50:00,
2013-11-04 23:51:00,36.7,32.6,30.54,NE,53,0.0,0.0,85,0.00,,,0.00,Wunderground v.1.15,2013-11-05 04:51:00,
2013-11-04 23:53:00,36.6,32.5,30.54,NE,53,0.0,0.0,85,0.00,,,0.00,Wunderground v.1.15,2013-11-05 04:53:00,
2013-11-04 23:54:00,36.6,32.5,30.54,NE,53,0.0,0.0,85,0.00,,,0.00,Wunderground v.1.15,2013-11-05 04:54:00,
2013-11-04 23:56:00,36.5,32.4,30.54,NE,53,0.0,0.0,85,0.00,,,0.00,Wunderground v.1.15,2013-11-05 04:56:00,
2013-11-04 23:57:00,36.5,32.4,30.54,NE,53,0.0,0.0,85,0.00,,,0.00,Wunderground v.1.15,2013-11-05 04:57:00,
2013-11-04 23:58:00,36.4,32.3,30.54,NE,53,0.0,0.0,85,0.00,,,0.00,Wunderground v.1.15,2013-11-05 04:58:00,
2013-11-04 23:59:00,36.4,32.6,30.54,NE,53,0.0,0.0,86,0.00,,,0.00,Wunderground v.1.15,2013-11-05 04:59:00,